| time (UTC) | temp C | wind direction | speed KPH | gust KPH | rain 1hr cm | rain 24hr cm | rain mn cm | humidity % | barometer mb |
| 20260509223037 | 13 | 244 | 3.2 | 6.4 | 0.00 | 0.00 | 0.00 | 86 | 1030.0 |
| 20260509222937 | 13 | 256 | 3.2 | 6.4 | 0.00 | 0.00 | 0.00 | 86 | 1029.9 |
| 20260509222837 | 13 | 257 | 3.2 | 6.4 | 0.00 | 0.00 | 0.00 | 86 | 1030.0 |
| 20260509222740 | 13 | 267 | 3.2 | 6.4 | 0.00 | 0.00 | 0.00 | 87 | 1030.0 |
| 20260509222637 | 13 | 269 | 1.6 | 6.4 | 0.00 | 0.00 | 0.00 | 87 | 1029.9 |
| 20260509222540 | 13 | 269 | 1.6 | 9.7 | 0.00 | 0.00 | 0.00 | 87 | 1029.9 |
| 20260509222437 | 13 | 261 | 1.6 | 11.3 | 0.00 | 0.00 | 0.00 | 87 | 1029.9 |
| 20260509222338 | 13 | 269 | 1.6 | 11.3 | 0.00 | 0.00 | 0.00 | 88 | 1030.0 |
| 20260509222238 | 12 | 282 | 1.6 | 11.3 | 0.00 | 0.00 | 0.00 | 88 | 1029.9 |
| 20260509222139 | 12 | 281 | 3.2 | 11.3 | 0.00 | 0.00 | 0.00 | 88 | 1029.9 |
| 20260509222039 | 12 | 266 | 3.2 | 11.3 | 0.00 | 0.00 | 0.00 | 88 | 1029.8 |
| 20260509221942 | 12 | 271 | 3.2 | 11.3 | 0.00 | 0.00 | 0.00 | 89 | 1029.8 |
| 20260509221837 | 12 | 277 | 3.2 | 11.3 | 0.00 | 0.00 | 0.00 | 89 | 1029.8 |
| 20260509221737 | 12 | 282 | 4.8 | 11.3 | 0.00 | 0.00 | 0.00 | 89 | 1029.8 |
| 20260509221642 | 12 | 271 | 6.4 | 11.3 | 0.00 | 0.00 | 0.00 | 89 | 1029.8 |
| 20260509221539 | 12 | 273 | 4.8 | 11.3 | 0.00 | 0.00 | 0.00 | 90 | 1029.9 |
| 20260509221439 | 12 | 264 | 3.2 | 9.7 | 0.00 | 0.00 | 0.00 | 90 | 1029.9 |
| 20260509221336 | 12 | 281 | 3.2 | 6.4 | 0.00 | 0.00 | 0.00 | 90 | 1029.8 |
| 20260509221242 | 12 | 280 | 3.2 | 6.4 | 0.00 | 0.00 | 0.00 | 90 | 1029.9 |
| 20260509221217 | 12 | 261 | 3.2 | 6.4 | 0.00 | 0.00 | 0.00 | 90 | 1029.8 |
| 20260509221156 | 12 | 286 | 3.2 | 6.4 | 0.00 | 0.00 | 0.00 | 91 | 1029.9 |
| 20260509221135 | 12 | 278 | 3.2 | 6.4 | 0.00 | 0.00 | 0.00 | 91 | 1029.9 |
| 20260509220838 | 12 | 273 | 1.6 | 6.4 | 0.00 | 0.00 | 0.00 | 91 | 1029.9 |
| 20260509220737 | 12 | 311 | 1.6 | 6.4 | 0.00 | 0.00 | 0.00 | 91 | 1029.8 |
| 20260509220640 | 12 | 276 | 3.2 | 6.4 | 0.00 | 0.00 | 0.00 | 91 | 1029.7 |
| 20260509220537 | 11 | 279 | 3.2 | 6.4 | 0.00 | 0.00 | 0.00 | 91 | 1029.7 |
| 20260509220438 | 11 | 286 | 1.6 | 6.4 | 0.00 | 0.00 | 0.00 | 91 | 1029.8 |
| 20260509220341 | 11 | 286 | 3.2 | 6.4 | 0.00 | 0.00 | 0.00 | 91 | 1029.7 |
| 20260509220242 | 11 | 304 | 3.2 | 6.4 | 0.00 | 0.00 | 0.00 | 92 | 1029.8 |
| 20260509220137 | 11 | 284 | 3.2 | 6.4 | 0.00 | 0.00 | 0.00 | 92 | 1029.8 |
| 20260509220038 | 11 | 276 | 1.6 | 6.4 | 0.00 | 0.00 | 0.00 | 92 | 1029.8 |
| 20260509215937 | 11 | 271 | 1.6 | 6.4 | 0.00 | 0.00 | 0.00 | 92 | 1029.8 |
| 20260509215837 | 11 | 288 | 3.2 | 6.4 | 0.00 | 0.00 | 0.00 | 92 | 1029.7 |
| 20260509215803 | 11 | 275 | 3.2 | 6.4 | 0.00 | 0.00 | 0.00 | 92 | 1029.8 |
| 20260509215637 | 11 | 279 | 1.6 | 6.4 | 0.00 | 0.00 | 0.00 | 92 | 1029.9 |
| 20260509215537 | 11 | 295 | 0.0 | 4.8 | 0.00 | 0.00 | 0.00 | 92 | 1029.8 |
| 20260509215436 | 11 | 278 | 0.0 | 4.8 | 0.00 | 0.00 | 0.00 | 92 | 1029.7 |
| 20260509215340 | 11 | 273 | 1.6 | 4.8 | 0.00 | 0.00 | 0.00 | 92 | 1029.7 |
| 20260509215237 | 11 | 273 | 1.6 | 6.4 | 0.00 | 0.00 | 0.00 | 92 | 1029.7 |
| 20260509215137 | 11 | 273 | 0.0 | 6.4 | 0.00 | 0.00 | 0.00 | 92 | 1029.6 |
| 20260509215039 | 11 | 286 | 1.6 | 6.4 | 0.00 | 0.00 | 0.00 | 93 | 1029.6 |
| 20260509214940 | 11 | 286 | 3.2 | 6.4 | 0.00 | 0.00 | 0.00 | 93 | 1029.6 |
| 20260509214838 | 11 | 277 | 3.2 | 6.4 | 0.00 | 0.00 | 0.00 | 93 | 1029.6 |
| 20260509214736 | 11 | 281 | 3.2 | 6.4 | 0.00 | 0.00 | 0.00 | 93 | 1029.5 |
| 20260509214633 | 10 | 290 | 1.6 | 6.4 | 0.00 | 0.00 | 0.00 | 93 | 1029.5 |
| 20260509214536 | 10 | 283 | 1.6 | 6.4 | 0.00 | 0.00 | 0.00 | 93 | 1029.6 |
| 20260509214429 | 10 | 296 | 3.2 | 6.4 | 0.00 | 0.00 | 0.00 | 93 | 1029.5 |
| 20260509214330 | 10 | 281 | 3.2 | 6.4 | 0.00 | 0.00 | 0.00 | 93 | 1029.5 |
| 20260509214236 | 10 | 293 | 1.6 | 4.8 | 0.00 | 0.00 | 0.00 | 93 | 1029.5 |
| 20260509214216 | 10 | 290 | 1.6 | 4.8 | 0.00 | 0.00 | 0.00 | 93 | 1029.5 |
| 20260509214155 | 10 | 292 | 1.6 | 4.8 | 0.00 | 0.00 | 0.00 | 93 | 1029.5 |
| 20260509214127 | 10 | 281 | 0.0 | 3.2 | 0.00 | 0.00 | 0.00 | 93 | 1029.5 |
| 20260509213825 | 10 | 277 | 0.0 | 3.2 | 0.00 | 0.00 | 0.00 | 93 | 1029.5 |
| 20260509213726 | 10 | 277 | 0.0 | 3.2 | 0.00 | 0.00 | 0.00 | 93 | 1029.5 |
| 20260509213621 | 10 | 277 | 0.0 | 3.2 | 0.00 | 0.00 | 0.00 | 93 | 1029.5 |
| 20260509213519 | 10 | 277 | 0.0 | 3.2 | 0.00 | 0.00 | 0.00 | 93 | 1029.5 |
| 20260509213317 | 10 | 277 | 0.0 | 4.8 | 0.00 | 0.00 | 0.00 | 93 | 1029.4 |
| 20260509213228 | 10 | 277 | 0.0 | 4.8 | 0.00 | 0.00 | 0.00 | 92 | 1029.4 |
| 20260509213206 | 10 | 277 | 0.0 | 4.8 | 0.00 | 0.00 | 0.00 | 92 | 1029.3 |
| 20260509213145 | 10 | 277 | 1.6 | 4.8 | 0.00 | 0.00 | 0.00 | 92 | 1029.4 |
| 20260509213122 | 10 | 277 | 1.6 | 4.8 | 0.00 | 0.00 | 0.00 | 92 | 1029.5 |
| 20260509212810 | 10 | 273 | 0.0 | 4.8 | 0.00 | 0.00 | 0.00 | 92 | 1029.3 |
| 20260509212702 | 10 | 273 | 0.0 | 4.8 | 0.00 | 0.00 | 0.00 | 92 | 1029.3 |
| 20260509212604 | 10 | 273 | 1.6 | 4.8 | 0.00 | 0.00 | 0.00 | 92 | 1029.3 |
| 20260509212504 | 10 | 273 | 1.6 | 4.8 | 0.00 | 0.00 | 0.00 | 92 | 1029.3 |
| 20260509212402 | 10 | 267 | 1.6 | 4.8 | 0.00 | 0.00 | 0.00 | 92 | 1029.3 |
| 20260509212306 | 10 | 300 | 1.6 | 4.8 | 0.00 | 0.00 | 0.00 | 92 | 1029.3 |
| 20260509212200 | 10 | 294 | 1.6 | 4.8 | 0.00 | 0.00 | 0.00 | 92 | 1029.1 |
| 20260509212102 | 10 | 306 | 1.6 | 4.8 | 0.00 | 0.00 | 0.00 | 92 | 1029.2 |
| 20260509212002 | 10 | 277 | 1.6 | 9.7 | 0.00 | 0.00 | 0.00 | 92 | 1029.0 |
| 20260509211859 | 10 | 279 | 0.0 | 9.7 | 0.00 | 0.00 | 0.00 | 92 | 1029.1 |
| 20260509211759 | 10 | 285 | 1.6 | 9.7 | 0.00 | 0.00 | 0.00 | 92 | 1029.1 |
| 20260509211654 | 10 | 285 | 3.2 | 9.7 | 0.00 | 0.00 | 0.00 | 92 | 1029.1 |
| 20260509211556 | 10 | 276 | 3.2 | 9.7 | 0.00 | 0.00 | 0.00 | 92 | 1029.0 |
| 20260509211454 | 10 | 276 | 1.6 | 9.7 | 0.00 | 0.00 | 0.00 | 92 | 1029.1 |
| 20260509211352 | 10 | 277 | 1.6 | 9.7 | 0.00 | 0.00 | 0.00 | 92 | 1029.2 |
| 20260509211254 | 10 | 286 | 3.2 | 9.7 | 0.00 | 0.00 | 0.00 | 92 | 1029.1 |
| 20260509211147 | 10 | 282 | 3.2 | 9.7 | 0.00 | 0.00 | 0.00 | 92 | 1028.9 |
| 20260509211046 | 10 | 278 | 3.2 | 9.7 | 0.00 | 0.00 | 0.00 | 92 | 1029.0 |
| 20260509210941 | 10 | 289 | 3.2 | 6.4 | 0.00 | 0.00 | 0.00 | 92 | 1029.0 |
| 20260509210842 | 10 | 275 | 3.2 | 6.4 | 0.00 | 0.00 | 0.00 | 92 | 1028.9 |
| 20260509210742 | 10 | 287 | 1.6 | 6.4 | 0.00 | 0.00 | 0.00 | 92 | 1028.9 |
| 20260509210642 | 10 | 284 | 1.6 | 4.8 | 0.00 | 0.00 | 0.00 | 92 | 1029.0 |
| 20260509210542 | 10 | 283 | 1.6 | 4.8 | 0.00 | 0.00 | 0.00 | 92 | 1029.0 |
| 20260509210440 | 10 | 279 | 3.2 | 4.8 | 0.00 | 0.00 | 0.00 | 92 | 1029.0 |
| 20260509210344 | 10 | 281 | 3.2 | 4.8 | 0.00 | 0.00 | 0.00 | 92 | 1028.9 |
| 20260509210241 | 10 | 277 | 3.2 | 4.8 | 0.00 | 0.00 | 0.00 | 92 | 1028.9 |
| 20260509210139 | 9 | 279 | 1.6 | 4.8 | 0.00 | 0.00 | 0.00 | 92 | 1029.0 |
| 20260509210036 | 9 | 288 | 3.2 | 4.8 | 0.00 | 0.00 | 0.00 | 92 | 1029.0 |
| 20260509205936 | 9 | 293 | 3.2 | 4.8 | 0.00 | 0.00 | 0.00 | 92 | 1028.9 |
| 20260509205835 | 9 | 289 | 3.2 | 4.8 | 0.00 | 0.00 | 0.00 | 92 | 1028.9 |
| 20260509205734 | 9 | 284 | 1.6 | 3.2 | 0.00 | 0.00 | 0.00 | 92 | 1028.9 |
| 20260509205634 | 9 | 293 | 0.0 | 3.2 | 0.00 | 0.00 | 0.00 | 92 | 1029.0 |
| 20260509205534 | 9 | 294 | 1.6 | 3.2 | 0.00 | 0.00 | 0.00 | 92 | 1028.9 |
| 20260509205434 | 9 | 299 | 1.6 | 3.2 | 0.00 | 0.00 | 0.00 | 92 | 1028.9 |
| 20260509205338 | 9 | 292 | 1.6 | 3.2 | 0.00 | 0.00 | 0.00 | 92 | 1028.9 |
| 20260509205234 | 9 | 288 | 1.6 | 3.2 | 0.00 | 0.00 | 0.00 | 92 | 1028.9 |
| 20260509205135 | 9 | 273 | 1.6 | 3.2 | 0.00 | 0.00 | 0.00 | 92 | 1028.9 |
| 20260509205034 | 9 | 275 | 1.6 | 3.2 | 0.00 | 0.00 | 0.00 | 92 | 1028.9 |
| 20260509204936 | 9 | 275 | 1.6 | 3.2 | 0.00 | 0.00 | 0.00 | 92 | 1028.9 |
| 20260509204834 | 9 | 274 | 1.6 | 3.2 | 0.00 | 0.00 | 0.00 | 92 | 1028.9 |
| 20260509204735 | 9 | 274 | 1.6 | 3.2 | 0.00 | 0.00 | 0.00 | 92 | 1028.9 |
| 20260509204634 | 9 | 274 | 0.0 | 3.2 | 0.00 | 0.00 | 0.00 | 92 | 1028.9 |
| 20260509204535 | 9 | 273 | 0.0 | 1.6 | 0.00 | 0.00 | 0.00 | 92 | 1028.9 |
| 20260509204435 | 9 | 278 | 0.0 | 0.0 | 0.00 | 0.00 | 0.00 | 92 | 1028.9 |
| 20260509204335 | 9 | 278 | 0.0 | 0.0 | 0.00 | 0.00 | 0.00 | 92 | 1028.9 |
| 20260509204234 | 9 | 278 | 0.0 | 0.0 | 0.00 | 0.00 | 0.00 | 92 | 1028.9 |
| 20260509204134 | 9 | 278 | 0.0 | 0.0 | 0.00 | 0.00 | 0.00 | 92 | 1028.9 |
| 20260509204034 | 9 | 278 | 0.0 | 0.0 | 0.00 | 0.00 | 0.00 | 92 | 1028.9 |
| 20260509203933 | 9 | 278 | 0.0 | 1.6 | 0.00 | 0.00 | 0.00 | 92 | 1028.9 |
| 20260509203832 | 9 | 278 | 0.0 | 1.6 | 0.00 | 0.00 | 0.00 | 92 | 1028.8 |
| 20260509203731 | 9 | 278 | 0.0 | 1.6 | 0.00 | 0.00 | 0.00 | 92 | 1028.8 |
| 20260509203709 | 9 | 278 | 0.0 | 1.6 | 0.00 | 0.00 | 0.00 | 92 | 1028.7 |
| 20260509203651 | 9 | 278 | 0.0 | 3.2 | 0.00 | 0.00 | 0.00 | 92 | 1028.8 |
| 20260509203625 | 9 | 278 | 0.0 | 3.2 | 0.00 | 0.00 | 0.00 | 92 | 1028.8 |
| 20260509203312 | 9 | 278 | 0.0 | 3.2 | 0.00 | 0.00 | 0.00 | 92 | 1028.7 |
| 20260509203213 | 9 | 278 | 0.0 | 3.2 | 0.00 | 0.00 | 0.00 | 92 | 1028.8 |
| 20260509203115 | 9 | 278 | 1.6 | 3.2 | 0.00 | 0.00 | 0.00 | 92 | 1028.8 |
| 20260509203010 | 9 | 278 | 0.0 | 3.2 | 0.00 | 0.00 | 0.00 | 92 | 1028.8 |
| 20260509202829 | 9 | 278 | 1.6 | 3.2 | 0.00 | 0.00 | 0.00 | 92 | 1028.7 |
| 20260509202754 | 9 | 278 | 1.6 | 3.2 | 0.00 | 0.00 | 0.00 | 92 | 1028.7 |
| 20260509202737 | 9 | 278 | 0.0 | 3.2 | 0.00 | 0.00 | 0.00 | 92 | 1028.6 |
| 20260509202717 | 9 | 278 | 1.6 | 3.2 | 0.00 | 0.00 | 0.00 | 92 | 1028.7 |
| 20260509202622 | 9 | 278 | 1.6 | 3.2 | 0.00 | 0.00 | 0.00 | 92 | 1028.6 |
| 20260509202312 | 9 | 278 | 1.6 | 3.2 | 0.00 | 0.00 | 0.00 | 92 | 1028.7 |
| 20260509202209 | 9 | 275 | 1.6 | 3.2 | 0.00 | 0.00 | 0.00 | 92 | 1028.6 |
| 20260509202109 | 9 | 272 | 0.0 | 3.2 | 0.00 | 0.00 | 0.00 | 91 | 1028.6 |
| 20260509202011 | 9 | 267 | 0.0 | 1.6 | 0.00 | 0.00 | 0.00 | 91 | 1028.6 |
| 20260509201811 | 9 | 267 | 0.0 | 1.6 | 0.00 | 0.00 | 0.00 | 91 | 1028.6 |
| 20260509201710 | 9 | 267 | 0.0 | 1.6 | 0.00 | 0.00 | 0.00 | 91 | 1028.5 |
| 20260509201611 | 9 | 267 | 0.0 | 1.6 | 0.00 | 0.00 | 0.00 | 91 | 1028.5 |
| 20260509201513 | 9 | 267 | 0.0 | 1.6 | 0.00 | 0.00 | 0.00 | 91 | 1028.5 |
| 20260509201311 | 9 | 267 | 0.0 | 1.6 | 0.00 | 0.00 | 0.00 | 91 | 1028.5 |
| 20260509201213 | 9 | 267 | 0.0 | 1.6 | 0.00 | 0.00 | 0.00 | 91 | 1028.5 |
| 20260509201112 | 9 | 267 | 0.0 | 3.2 | 0.00 | 0.00 | 0.00 | 91 | 1028.5 |
| 20260509201009 | 9 | 267 | 0.0 | 3.2 | 0.00 | 0.00 | 0.00 | 91 | 1028.4 |
| 20260509200811 | 9 | 275 | 0.0 | 3.2 | 0.00 | 0.00 | 0.00 | 91 | 1028.4 |
| 20260509200728 | 9 | 275 | 0.0 | 3.2 | 0.00 | 0.00 | 0.00 | 91 | 1028.4 |
| 20260509200707 | 9 | 275 | 0.0 | 4.8 | 0.00 | 0.00 | 0.00 | 91 | 1028.4 |
| 20260509200648 | 9 | 275 | 0.0 | 4.8 | 0.00 | 0.00 | 0.00 | 91 | 1028.5 |
| 20260509200621 | 9 | 275 | 1.6 | 4.8 | 0.00 | 0.00 | 0.00 | 91 | 1028.4 |
| 20260509200312 | 9 | 275 | 1.6 | 4.8 | 0.00 | 0.00 | 0.00 | 91 | 1028.4 |
| 20260509200209 | 9 | 275 | 1.6 | 4.8 | 0.00 | 0.00 | 0.00 | 91 | 1028.3 |
| 20260509200109 | 9 | 275 | 1.6 | 4.8 | 0.00 | 0.00 | 0.00 | 91 | 1028.4 |
| 20260509200010 | 9 | 275 | 3.2 | 4.8 | 0.00 | 0.00 | 0.00 | 91 | 1028.3 |
| 20260509195810 | 9 | 275 | 1.6 | 4.8 | 0.00 | 0.00 | 0.00 | 91 | 1028.3 |
| 20260509195719 | 9 | 275 | 1.6 | 4.8 | 0.00 | 0.00 | 0.00 | 91 | 1028.3 |
| 20260509195609 | 9 | 281 | 3.2 | 4.8 | 0.00 | 0.00 | 0.00 | 91 | 1028.3 |
| 20260509195514 | 9 | 273 | 3.2 | 4.8 | 0.00 | 0.00 | 0.00 | 91 | 1028.3 |
| 20260509195312 | 9 | 297 | 1.6 | 3.2 | 0.00 | 0.00 | 0.00 | 91 | 1028.1 |
| 20260509195219 | 9 | 297 | 1.6 | 3.2 | 0.00 | 0.00 | 0.00 | 91 | 1028.1 |
| 20260509195113 | 9 | 297 | 1.6 | 3.2 | 0.00 | 0.00 | 0.00 | 91 | 1028.2 |
| 20260509195010 | 9 | 297 | 1.6 | 3.2 | 0.00 | 0.00 | 0.00 | 91 | 1028.1 |
| 20260509194929 | 9 | 297 | 1.6 | 3.2 | 0.00 | 0.00 | 0.00 | 91 | 1028.1 |
| 20260509194813 | 9 | 297 | 0.0 | 3.2 | 0.00 | 0.00 | 0.00 | 91 | 1028.1 |
| 20260509194710 | 9 | 297 | 0.0 | 3.2 | 0.00 | 0.00 | 0.00 | 91 | 1027.9 |
| 20260509194611 | 9 | 298 | 0.0 | 3.2 | 0.00 | 0.00 | 0.00 | 91 | 1028.0 |
| 20260509194511 | 9 | 297 | 0.0 | 3.2 | 0.00 | 0.00 | 0.00 | 91 | 1027.9 |
| 20260509194313 | 9 | 297 | 0.0 | 3.2 | 0.00 | 0.00 | 0.00 | 91 | 1028.0 |
| 20260509194243 | 9 | 297 | 0.0 | 1.6 | 0.00 | 0.00 | 0.00 | 91 | 1027.9 |
| 20260509194214 | 9 | 297 | 0.0 | 1.6 | 0.00 | 0.00 | 0.00 | 91 | 1027.9 |
| 20260509194150 | 9 | 297 | 0.0 | 1.6 | 0.00 | 0.00 | 0.00 | 91 | 1027.9 |
| 20260509194123 | 9 | 297 | 0.0 | 1.6 | 0.00 | 0.00 | 0.00 | 91 | 1027.9 |
| 20260509193811 | 9 | 297 | 0.0 | 1.6 | 0.00 | 0.00 | 0.00 | 91 | 1027.9 |
| 20260509193709 | 9 | 297 | 0.0 | 1.6 | 0.00 | 0.00 | 0.00 | 91 | 1027.9 |
| 20260509193611 | 9 | 297 | 0.0 | 3.2 | 0.00 | 0.00 | 0.00 | 91 | 1027.8 |
| 20260509193508 | 10 | 297 | 0.0 | 3.2 | 0.00 | 0.00 | 0.00 | 91 | 1027.9 |
| 20260509193412 | 10 | 297 | 0.0 | 3.2 | 0.00 | 0.00 | 0.00 | 91 | 1027.8 |
| 20260509193311 | 10 | 297 | 0.0 | 3.2 | 0.00 | 0.00 | 0.00 | 91 | 1027.8 |
| 20260509193209 | 10 | 297 | 0.0 | 3.2 | 0.00 | 0.00 | 0.00 | 91 | 1027.8 |
| 20260509193108 | 10 | 297 | 0.0 | 3.2 | 0.00 | 0.00 | 0.00 | 91 | 1027.7 |
| 20260509193009 | 10 | 297 | 0.0 | 3.2 | 0.00 | 0.00 | 0.00 | 91 | 1027.8 |
| 20260509192909 | 10 | 297 | 0.0 | 3.2 | 0.00 | 0.00 | 0.00 | 91 | 1027.8 |
| 20260509192814 | 10 | 297 | 1.6 | 3.2 | 0.00 | 0.00 | 0.00 | 91 | 1027.7 |
| 20260509192714 | 10 | 297 | 1.6 | 3.2 | 0.00 | 0.00 | 0.00 | 91 | 1027.8 |
| 20260509192611 | 10 | 297 | 1.6 | 3.2 | 0.00 | 0.00 | 0.00 | 91 | 1027.7 |
| 20260509192511 | 10 | 297 | 1.6 | 3.2 | 0.00 | 0.00 | 0.00 | 91 | 1027.7 |
| 20260509192437 | 10 | 297 | 1.6 | 3.2 | 0.00 | 0.00 | 0.00 | 91 | 1027.8 |
| 20260509192311 | 10 | 297 | 0.0 | 3.2 | 0.00 | 0.00 | 0.00 | 91 | 1027.8 |
| 20260509192209 | 10 | 297 | 0.0 | 3.2 | 0.00 | 0.00 | 0.00 | 91 | 1027.7 |
| 20260509192110 | 10 | 297 | 0.0 | 3.2 | 0.00 | 0.00 | 0.00 | 91 | 1027.6 |
| 20260509192012 | 10 | 297 | 1.6 | 3.2 | 0.00 | 0.00 | 0.00 | 91 | 1027.7 |
| 20260509191909 | 10 | 297 | 1.6 | 3.2 | 0.00 | 0.00 | 0.00 | 91 | 1027.7 |
| 20260509191813 | 10 | 297 | 1.6 | 3.2 | 0.00 | 0.00 | 0.00 | 91 | 1027.7 |
| 20260509191709 | 10 | 297 | 1.6 | 3.2 | 0.00 | 0.00 | 0.00 | 91 | 1027.7 |
| 20260509191607 | 10 | 297 | 0.0 | 3.2 | 0.00 | 0.00 | 0.00 | 91 | 1027.7 |
| 20260509191511 | 10 | 297 | 0.0 | 1.6 | 0.00 | 0.00 | 0.00 | 91 | 1027.6 |
| 20260509191410 | 10 | 297 | 0.0 | 1.6 | 0.00 | 0.00 | 0.00 | 91 | 1027.7 |
| 20260509191311 | 10 | 297 | 0.0 | 0.0 | 0.00 | 0.00 | 0.00 | 91 | 1027.7 |
| 20260509191211 | 10 | 297 | 0.0 | 1.6 | 0.00 | 0.00 | 0.00 | 91 | 1027.7 |
| 20260509191110 | 10 | 297 | 0.0 | 3.2 | 0.00 | 0.00 | 0.00 | 91 | 1027.6 |
| 20260509191008 | 10 | 297 | 0.0 | 3.2 | 0.00 | 0.00 | 0.00 | 91 | 1027.6 |
| 20260509190908 | 10 | 297 | 0.0 | 3.2 | 0.00 | 0.00 | 0.00 | 91 | 1027.6 |
| 20260509190812 | 10 | 297 | 0.0 | 3.2 | 0.00 | 0.00 | 0.00 | 91 | 1027.7 |
| 20260509190710 | 10 | 297 | 0.0 | 3.2 | 0.00 | 0.00 | 0.00 | 91 | 1027.5 |
| 20260509190611 | 10 | 297 | 0.0 | 3.2 | 0.00 | 0.00 | 0.00 | 91 | 1027.5 |
| 20260509190510 | 10 | 297 | 0.0 | 3.2 | 0.00 | 0.00 | 0.00 | 91 | 1027.6 |
| 20260509190409 | 10 | 297 | 0.0 | 3.2 | 0.00 | 0.00 | 0.00 | 91 | 1027.6 |
| 20260509190312 | 10 | 297 | 1.6 | 3.2 | 0.00 | 0.00 | 0.00 | 91 | 1027.5 |
| 20260509190208 | 10 | 297 | 1.6 | 3.2 | 0.00 | 0.00 | 0.00 | 91 | 1027.5 |
| 20260509190110 | 10 | 297 | 1.6 | 3.2 | 0.00 | 0.00 | 0.00 | 91 | 1027.5 |
| 20260509190010 | 10 | 297 | 1.6 | 3.2 | 0.00 | 0.00 | 0.00 | 91 | 1027.5 |
| 20260509185910 | 10 | 297 | 1.6 | 3.2 | 0.00 | 0.00 | 0.00 | 91 | 1027.5 |
| 20260509185814 | 10 | 297 | 1.6 | 3.2 | 0.00 | 0.00 | 0.00 | 91 | 1027.5 |
| 20260509185710 | 10 | 297 | 1.6 | 3.2 | 0.00 | 0.00 | 0.00 | 91 | 1027.4 |
| 20260509185609 | 10 | 297 | 1.6 | 3.2 | 0.00 | 0.00 | 0.00 | 91 | 1027.5 |
| 20260509185509 | 10 | 297 | 1.6 | 3.2 | 0.00 | 0.00 | 0.00 | 91 | 1027.5 |
| 20260509185437 | 10 | 298 | 1.6 | 3.2 | 0.00 | 0.00 | 0.00 | 91 | 1027.4 |
| 20260509185309 | 10 | 297 | 1.6 | 3.2 | 0.00 | 0.00 | 0.00 | 91 | 1027.4 |
| 20260509185212 | 10 | 297 | 1.6 | 3.2 | 0.00 | 0.00 | 0.00 | 91 | 1027.5 |
| 20260509185110 | 10 | 297 | 0.0 | 1.6 | 0.00 | 0.00 | 0.00 | 91 | 1027.5 |
| 20260509185008 | 10 | 297 | 0.0 | 1.6 | 0.00 | 0.00 | 0.00 | 91 | 1027.4 |
| 20260509184911 | 10 | 297 | 0.0 | 0.0 | 0.00 | 0.00 | 0.00 | 91 | 1027.4 |
| 20260509184810 | 10 | 297 | 0.0 | 0.0 | 0.00 | 0.00 | 0.00 | 91 | 1027.4 |
| 20260509184711 | 10 | 297 | 0.0 | 0.0 | 0.00 | 0.00 | 0.00 | 91 | 1027.4 |
| 20260509184607 | 10 | 297 | 0.0 | 0.0 | 0.00 | 0.00 | 0.00 | 91 | 1027.5 |
| 20260509184504 | 10 | 297 | 0.0 | 0.0 | 0.00 | 0.00 | 0.00 | 91 | 1027.4 |
| 20260509184404 | 10 | 297 | 0.0 | 1.6 | 0.00 | 0.00 | 0.00 | 91 | 1027.4 |
| 20260509184310 | 10 | 297 | 0.0 | 1.6 | 0.00 | 0.00 | 0.00 | 91 | 1027.3 |
| 20260509184216 | 10 | 297 | 0.0 | 1.6 | 0.00 | 0.00 | 0.00 | 91 | 1027.3 |
| 20260509184140 | 10 | 297 | 0.0 | 3.2 | 0.00 | 0.00 | 0.00 | 91 | 1027.3 |
| 20260509184122 | 10 | 297 | 0.0 | 4.8 | 0.00 | 0.00 | 0.00 | 91 | 1027.3 |
| 20260509184100 | 10 | 297 | 0.0 | 4.8 | 0.00 | 0.00 | 0.00 | 91 | 1027.4 |
| 20260509183758 | 10 | 297 | 0.0 | 4.8 | 0.00 | 0.00 | 0.00 | 91 | 1027.4 |
| 20260509183658 | 10 | 297 | 0.0 | 4.8 | 0.00 | 0.00 | 0.00 | 91 | 1027.3 |
| 20260509183554 | 10 | 297 | 0.0 | 4.8 | 0.00 | 0.00 | 0.00 | 91 | 1027.3 |
| 20260509183453 | 10 | 297 | 1.6 | 4.8 | 0.00 | 0.00 | 0.00 | 91 | 1027.2 |
| 20260509183353 | 10 | 297 | 1.6 | 4.8 | 0.00 | 0.00 | 0.00 | 91 | 1027.3 |
| 20260509183256 | 10 | 290 | 1.6 | 4.8 | 0.00 | 0.00 | 0.00 | 91 | 1027.3 |
| 20260509183146 | 10 | 289 | 3.2 | 4.8 | 0.00 | 0.00 | 0.00 | 91 | 1027.2 |
| 20260509183046 | 9 | 286 | 3.2 | 4.8 | 0.00 | 0.00 | 0.00 | 91 | 1027.3 |
| 20260509182945 | 9 | 290 | 1.6 | 6.4 | 0.00 | 0.00 | 0.00 | 91 | 1027.3 |
| 20260509182740 | 9 | 292 | 1.6 | 6.4 | 0.00 | 0.00 | 0.00 | 91 | 1027.3 |
| 20260509182637 | 9 | 302 | 1.6 | 6.4 | 0.00 | 0.00 | 0.00 | 91 | 1027.3 |
| 20260509182538 | 9 | 302 | 0.0 | 6.4 | 0.00 | 0.00 | 0.00 | 91 | 1027.3 |
| 20260509182439 | 9 | 302 | 0.0 | 6.4 | 0.00 | 0.00 | 0.00 | 91 | 1027.2 |
| 20260509182242 | 9 | 302 | 1.6 | 6.4 | 0.00 | 0.00 | 0.00 | 91 | 1027.2 |
| 20260509182138 | 9 | 294 | 3.2 | 6.4 | 0.00 | 0.00 | 0.00 | 91 | 1027.3 |
| 20260509182038 | 9 | 306 | 3.2 | 6.4 | 0.00 | 0.00 | 0.00 | 91 | 1027.2 |
| 20260509181937 | 9 | 307 | 3.2 | 4.8 | 0.00 | 0.00 | 0.00 | 91 | 1027.3 |
| 20260509181743 | 9 | 294 | 0.0 | 4.8 | 0.00 | 0.00 | 0.00 | 91 | 1027.2 |
| 20260509181637 | 9 | 281 | 0.0 | 4.8 | 0.00 | 0.00 | 0.00 | 91 | 1027.2 |
| 20260509181538 | 9 | 281 | 0.0 | 4.8 | 0.00 | 0.00 | 0.00 | 90 | 1027.2 |
| 20260509181439 | 9 | 281 | 0.0 | 4.8 | 0.00 | 0.00 | 0.00 | 90 | 1027.2 |
| 20260509181237 | 9 | 281 | 0.0 | 4.8 | 0.00 | 0.00 | 0.00 | 90 | 1027.2 |
| 20260509181133 | 9 | 281 | 0.0 | 4.8 | 0.00 | 0.00 | 0.00 | 90 | 1027.1 |
| 20260509181033 | 9 | 281 | 1.6 | 6.4 | 0.00 | 0.00 | 0.00 | 90 | 1027.1 |
| 20260509180931 | 9 | 281 | 3.2 | 6.4 | 0.00 | 0.00 | 0.00 | 90 | 1027.1 |
| 20260509180731 | 9 | 281 | 3.2 | 6.4 | 0.00 | 0.00 | 0.00 | 90 | 1027.2 |
| 20260509180631 | 9 | 292 | 3.2 | 6.4 | 0.00 | 0.00 | 0.00 | 90 | 1027.1 |
| 20260509180529 | 9 | 287 | 1.6 | 6.4 | 0.00 | 0.00 | 0.00 | 90 | 1027.1 |
| 20260509180426 | 9 | 281 | 3.2 | 6.4 | 0.00 | 0.00 | 0.00 | 90 | 1027.2 |
| 20260509180220 | 9 | 283 | 1.6 | 6.4 | 0.00 | 0.00 | 0.00 | 90 | 1027.2 |
| 20260509180122 | 9 | 295 | 0.0 | 0.0 | 0.00 | 0.00 | 0.00 | 90 | 1027.2 |
| 20260509180017 | 9 | 295 | 0.0 | 0.0 | 0.00 | 0.00 | 0.00 | 90 | 1027.2 |
| 20260509175918 | 9 | 295 | 0.0 | 0.0 | 0.00 | 0.00 | 0.00 | 90 | 1027.1 |
| 20260509175813 | 9 | 295 | 0.0 | 0.0 | 0.00 | 0.00 | 0.00 | 90 | 1027.2 |
| 20260509175709 | 9 | 295 | 0.0 | 0.0 | 0.00 | 0.00 | 0.00 | 90 | 1027.3 |
| 20260509175611 | 9 | 295 | 0.0 | 0.0 | 0.00 | 0.00 | 0.00 | 90 | 1027.1 |
| 20260509175512 | 9 | 295 | 0.0 | 0.0 | 0.00 | 0.00 | 0.00 | 90 | 1027.2 |
| 20260509175412 | 9 | 295 | 0.0 | 0.0 | 0.00 | 0.00 | 0.00 | 90 | 1027.3 |
| 20260509175336 | 9 | 295 | 0.0 | 0.0 | 0.00 | 0.00 | 0.00 | 90 | 1027.2 |
| 20260509175210 | 9 | 295 | 0.0 | 0.0 | 0.00 | 0.00 | 0.00 | 90 | 1027.2 |
| 20260509175109 | 9 | 295 | 0.0 | 0.0 | 0.00 | 0.00 | 0.00 | 90 | 1027.4 |
| 20260509175011 | 9 | 295 | 0.0 | 0.0 | 0.00 | 0.00 | 0.00 | 90 | 1027.3 |
| 20260509174910 | 9 | 295 | 0.0 | 0.0 | 0.00 | 0.00 | 0.00 | 90 | 1027.2 |
| 20260509174808 | 9 | 295 | 0.0 | 0.0 | 0.00 | 0.00 | 0.00 | 90 | 1027.2 |
| 20260509174710 | 9 | 295 | 0.0 | 0.0 | 0.00 | 0.00 | 0.00 | 90 | 1027.3 |
| 20260509174616 | 9 | 295 | 0.0 | 0.0 | 0.00 | 0.00 | 0.00 | 90 | 1027.4 |
| 20260509174512 | 9 | 295 | 0.0 | 0.0 | 0.00 | 0.00 | 0.00 | 90 | 1027.3 |
| 20260509174409 | 9 | 295 | 0.0 | 0.0 | 0.00 | 0.00 | 0.00 | 90 | 1027.3 |
| 20260509174311 | 10 | 295 | 0.0 | 0.0 | 0.00 | 0.00 | 0.00 | 90 | 1027.2 |
| 20260509174236 | 10 | 295 | 0.0 | 0.0 | 0.00 | 0.00 | 0.00 | 90 | 1027.3 |
| 20260509174207 | 10 | 295 | 0.0 | 0.0 | 0.00 | 0.00 | 0.00 | 90 | 1027.2 |
| 20260509174144 | 10 | 295 | 0.0 | 0.0 | 0.00 | 0.00 | 0.00 | 90 | 1027.2 |
| 20260509173906 | 10 | 295 | 0.0 | 0.0 | 0.00 | 0.00 | 0.00 | 90 | 1027.1 |
| 20260509173833 | 10 | 295 | 0.0 | 0.0 | 0.00 | 0.00 | 0.00 | 90 | 1027.2 |
| 20260509173809 | 10 | 295 | 0.0 | 0.0 | 0.00 | 0.00 | 0.00 | 90 | 1027.2 |
| 20260509173748 | 10 | 295 | 0.0 | 0.0 | 0.00 | 0.00 | 0.00 | 90 | 1027.2 |
| 20260509173723 | 10 | 295 | 0.0 | 0.0 | 0.00 | 0.00 | 0.00 | 90 | 1027.1 |
| 20260509173703 | 10 | 295 | 0.0 | 0.0 | 0.00 | 0.00 | 0.00 | 90 | 1027.2 |
| 20260509173428 | 10 | 295 | 0.0 | 0.0 | 0.00 | 0.00 | 0.00 | 90 | 1027.2 |
| 20260509173150 | 10 | 295 | 0.0 | 0.0 | 0.00 | 0.00 | 0.00 | 90 | 1027.1 |
| 20260509173123 | 10 | 295 | 0.0 | 0.0 | 0.00 | 0.00 | 0.00 | 90 | 1027.1 |
| 20260509173058 | 10 | 295 | 0.0 | 0.0 | 0.00 | 0.00 | 0.00 | 90 | 1027.1 |
| 20260509173038 | 10 | 295 | 0.0 | 0.0 | 0.00 | 0.00 | 0.00 | 90 | 1027.2 |
| 20260509172738 | 10 | 295 | 0.0 | 0.0 | 0.00 | 0.00 | 0.00 | 90 | 1027.1 |
| 20260509172639 | 10 | 295 | 0.0 | 0.0 | 0.00 | 0.00 | 0.00 | 90 | 1027.2 |
| 20260509172536 | 10 | 295 | 0.0 | 0.0 | 0.00 | 0.00 | 0.00 | 90 | 1027.1 |
| 20260509172440 | 10 | 295 | 0.0 | 1.6 | 0.00 | 0.00 | 0.00 | 90 | 1027.2 |
| 20260509172337 | 10 | 295 | 0.0 | 1.6 | 0.00 | 0.00 | 0.00 | 90 | 1027.2 |
| 20260509172236 | 10 | 295 | 0.0 | 1.6 | 0.00 | 0.00 | 0.00 | 90 | 1027.2 |
| 20260509172145 | 10 | 295 | 0.0 | 1.6 | 0.00 | 0.00 | 0.00 | 90 | 1027.1 |
| 20260509172120 | 10 | 295 | 0.0 | 1.6 | 0.00 | 0.00 | 0.00 | 90 | 1027.1 |
| 20260509172050 | 10 | 295 | 0.0 | 1.6 | 0.00 | 0.00 | 0.00 | 90 | 1027.1 |
| 20260509172033 | 10 | 295 | 0.0 | 1.6 | 0.00 | 0.00 | 0.00 | 90 | 1027.2 |
| 20260509171739 | 10 | 295 | 0.0 | 1.6 | 0.00 | 0.00 | 0.00 | 90 | 1027.2 |
| 20260509171639 | 10 | 295 | 0.0 | 1.6 | 0.00 | 0.00 | 0.00 | 90 | 1027.2 |
| 20260509171546 | 10 | 295 | 0.0 | 1.6 | 0.00 | 0.00 | 0.00 | 90 | 1027.1 |
| 20260509171437 | 10 | 295 | 0.0 | 1.6 | 0.00 | 0.00 | 0.00 | 90 | 1027.2 |
| 20260509171337 | 10 | 295 | 0.0 | 1.6 | 0.00 | 0.00 | 0.00 | 90 | 1027.2 |
| 20260509171239 | 10 | 295 | 0.0 | 3.2 | 0.00 | 0.00 | 0.00 | 90 | 1027.1 |
| 20260509171138 | 10 | 295 | 0.0 | 3.2 | 0.00 | 0.00 | 0.00 | 90 | 1027.2 |
| 20260509171038 | 10 | 295 | 0.0 | 3.2 | 0.00 | 0.00 | 0.00 | 90 | 1027.3 |
| 20260509170937 | 10 | 295 | 0.0 | 3.2 | 0.00 | 0.00 | 0.00 | 90 | 1027.2 |
| 20260509170839 | 10 | 295 | 0.0 | 3.2 | 0.00 | 0.00 | 0.00 | 90 | 1027.2 |
| 20260509170736 | 10 | 295 | 0.0 | 3.2 | 0.00 | 0.00 | 0.00 | 90 | 1027.1 |
| 20260509170639 | 10 | 295 | 0.0 | 3.2 | 0.00 | 0.00 | 0.00 | 90 | 1027.2 |
| 20260509170544 | 10 | 295 | 0.0 | 3.2 | 0.00 | 0.00 | 0.00 | 90 | 1027.2 |
| 20260509170512 | 10 | 295 | 0.0 | 3.2 | 0.00 | 0.00 | 0.00 | 90 | 1027.1 |
| 20260509170421 | 10 | 295 | 0.0 | 3.2 | 0.00 | 0.00 | 0.00 | 89 | 1027.1 |
| 20260509170142 | 10 | 295 | 0.0 | 3.2 | 0.00 | 0.00 | 0.00 | 89 | 1027.2 |
| 20260509170117 | 10 | 295 | 0.0 | 1.6 | 0.00 | 0.00 | 0.00 | 89 | 1027.2 |
| 20260509170052 | 10 | 295 | 0.0 | 1.6 | 0.00 | 0.00 | 0.00 | 89 | 1027.1 |
| 20260509170028 | 10 | 295 | 0.0 | 0.0 | 0.00 | 0.00 | 0.00 | 89 | 1027.2 |
| 20260509165713 | 10 | 295 | 0.0 | 0.0 | 0.00 | 0.00 | 0.00 | 89 | 1027.2 |
| 20260509165611 | 10 | 295 | 0.0 | 0.0 | 0.00 | 0.00 | 0.00 | 89 | 1027.2 |
| 20260509165509 | 10 | 295 | 0.0 | 0.0 | 0.00 | 0.00 | 0.00 | 89 | 1027.1 |
| 20260509165411 | 10 | 295 | 0.0 | 0.0 | 0.00 | 0.00 | 0.00 | 89 | 1027.1 |
| 20260509165213 | 10 | 295 | 0.0 | 0.0 | 0.00 | 0.00 | 0.00 | 90 | 1027.3 |
| 20260509165110 | 10 | 295 | 0.0 | 0.0 | 0.00 | 0.00 | 0.00 | 89 | 1027.2 |
| 20260509165012 | 10 | 295 | 0.0 | 0.0 | 0.00 | 0.00 | 0.00 | 90 | 1027.2 |
| 20260509164909 | 10 | 295 | 0.0 | 0.0 | 0.00 | 0.00 | 0.00 | 90 | 1027.3 |
| 20260509164712 | 10 | 295 | 0.0 | 0.0 | 0.00 | 0.00 | 0.00 | 89 | 1027.2 |
| 20260509164636 | 10 | 295 | 0.0 | 0.0 | 0.00 | 0.00 | 0.00 | 89 | 1027.2 |
| 20260509164613 | 10 | 295 | 0.0 | 0.0 | 0.00 | 0.00 | 0.00 | 89 | 1027.2 |
| 20260509164548 | 10 | 295 | 0.0 | 0.0 | 0.00 | 0.00 | 0.00 | 89 | 1027.1 |
| 20260509164523 | 10 | 295 | 0.0 | 0.0 | 0.00 | 0.00 | 0.00 | 89 | 1027.1 |
| 20260509164210 | 10 | 295 | 0.0 | 0.0 | 0.00 | 0.00 | 0.00 | 89 | 1027.1 |
| 20260509164110 | 10 | 295 | 0.0 | 0.0 | 0.00 | 0.00 | 0.00 | 89 | 1027.1 |
| 20260509164011 | 10 | 295 | 0.0 | 0.0 | 0.00 | 0.00 | 0.00 | 89 | 1027.2 |
| 20260509163910 | 10 | 295 | 0.0 | 0.0 | 0.00 | 0.00 | 0.00 | 89 | 1027.1 |
| 20260509163805 | 10 | 295 | 0.0 | 0.0 | 0.00 | 0.00 | 0.00 | 89 | 1027.1 |
| 20260509163701 | 10 | 295 | 0.0 | 0.0 | 0.00 | 0.00 | 0.00 | 89 | 1027.1 |
| 20260509163602 | 10 | 295 | 0.0 | 0.0 | 0.00 | 0.00 | 0.00 | 89 | 1027.1 |
| 20260509163500 | 10 | 295 | 0.0 | 0.0 | 0.00 | 0.00 | 0.00 | 89 | 1027.2 |
| 20260509163358 | 10 | 295 | 0.0 | 0.0 | 0.00 | 0.00 | 0.00 | 89 | 1027.1 |
| 20260509163300 | 10 | 295 | 0.0 | 1.6 | 0.00 | 0.00 | 0.00 | 89 | 1027.2 |
| 20260509163202 | 10 | 295 | 0.0 | 1.6 | 0.00 | 0.00 | 0.00 | 89 | 1027.1 |
| 20260509163059 | 10 | 295 | 0.0 | 1.6 | 0.00 | 0.00 | 0.00 | 89 | 1027.2 |
| 20260509162952 | 10 | 295 | 0.0 | 1.6 | 0.00 | 0.00 | 0.00 | 89 | 1027.1 |
| 20260509162853 | 10 | 295 | 0.0 | 1.6 | 0.00 | 0.00 | 0.00 | 89 | 1027.1 |
| 20260509162748 | 10 | 295 | 0.0 | 1.6 | 0.00 | 0.00 | 0.00 | 89 | 1027.2 |
| 20260509162637 | 10 | 295 | 0.0 | 1.6 | 0.00 | 0.00 | 0.00 | 89 | 1027.3 |
| 20260509162538 | 10 | 295 | 0.0 | 1.6 | 0.00 | 0.00 | 0.00 | 89 | 1027.1 |
| 20260509162503 | 10 | 295 | 0.0 | 1.6 | 0.00 | 0.00 | 0.00 | 89 | 1027.2 |
| 20260509162438 | 10 | 295 | 0.0 | 1.6 | 0.00 | 0.00 | 0.00 | 89 | 1027.2 |
| 20260509162401 | 10 | 295 | 0.0 | 1.6 | 0.00 | 0.00 | 0.00 | 89 | 1027.2 |
| 20260509162338 | 10 | 295 | 0.0 | 0.0 | 0.00 | 0.00 | 0.00 | 89 | 1027.2 |
| 20260509162315 | 10 | 295 | 0.0 | 0.0 | 0.00 | 0.00 | 0.00 | 89 | 1027.1 |
| 20260509162251 | 10 | 295 | 0.0 | 0.0 | 0.00 | 0.00 | 0.00 | 89 | 1027.2 |
| 20260509162153 | 10 | 295 | 0.0 | 1.6 | 0.00 | 0.00 | 0.00 | 89 | 1027.2 |
| 20260509161915 | 10 | 295 | 0.0 | 1.6 | 0.00 | 0.00 | 0.00 | 89 | 1027.2 |
| 20260509161637 | 10 | 295 | 0.0 | 1.6 | 0.00 | 0.00 | 0.00 | 89 | 1027.1 |
| 20260509161615 | 10 | 295 | 0.0 | 1.6 | 0.00 | 0.00 | 0.00 | 89 | 1027.1 |
| 20260509161555 | 10 | 295 | 0.0 | 1.6 | 0.00 | 0.00 | 0.00 | 89 | 1027.3 |
| 20260509161529 | 10 | 295 | 0.0 | 1.6 | 0.00 | 0.00 | 0.00 | 89 | 1027.3 |
| 20260509161237 | 10 | 295 | 0.0 | 1.6 | 0.00 | 0.00 | 0.00 | 89 | 1027.2 |
| 20260509161137 | 10 | 295 | 0.0 | 3.2 | 0.00 | 0.00 | 0.00 | 89 | 1027.2 |
| 20260509161039 | 10 | 295 | 0.0 | 3.2 | 0.00 | 0.00 | 0.00 | 89 | 1027.2 |
| 20260509160936 | 10 | 295 | 0.0 | 3.2 | 0.00 | 0.00 | 0.00 | 89 | 1027.2 |
| 20260509160838 | 10 | 295 | 0.0 | 3.2 | 0.00 | 0.00 | 0.00 | 89 | 1027.2 |
| 20260509160738 | 10 | 295 | 0.0 | 3.2 | 0.00 | 0.00 | 0.00 | 89 | 1027.2 |
| 20260509160636 | 10 | 295 | 0.0 | 3.2 | 0.00 | 0.00 | 0.00 | 89 | 1027.1 |
| 20260509160535 | 10 | 295 | 0.0 | 3.2 | 0.00 | 0.00 | 0.00 | 89 | 1027.3 |
| 20260509160436 | 10 | 295 | 1.6 | 3.2 | 0.00 | 0.00 | 0.00 | 89 | 1027.2 |
| 20260509160334 | 10 | 295 | 1.6 | 3.2 | 0.00 | 0.00 | 0.00 | 89 | 1027.2 |
| 20260509160234 | 10 | 295 | 0.0 | 3.2 | 0.00 | 0.00 | 0.00 | 89 | 1027.3 |
| 20260509160134 | 10 | 295 | 1.6 | 3.2 | 0.00 | 0.00 | 0.00 | 89 | 1027.2 |
| 20260509160024 | 10 | 295 | 1.6 | 3.2 | 0.00 | 0.00 | 0.00 | 89 | 1027.3 |
| 20260509155921 | 10 | 295 | 1.6 | 3.2 | 0.00 | 0.00 | 0.00 | 89 | 1027.2 |
| 20260509155715 | 10 | 295 | 1.6 | 3.2 | 0.00 | 0.00 | 0.00 | 89 | 1027.2 |
| 20260509155609 | 10 | 295 | 1.6 | 3.2 | 0.00 | 0.00 | 0.00 | 89 | 1027.2 |
| 20260509155512 | 10 | 295 | 1.6 | 3.2 | 0.00 | 0.00 | 0.00 | 89 | 1027.2 |
| 20260509155411 | 10 | 295 | 1.6 | 3.2 | 0.00 | 0.00 | 0.00 | 89 | 1027.2 |
| 20260509155229 | 10 | 295 | 1.6 | 3.2 | 0.00 | 0.00 | 0.00 | 89 | 1027.2 |
| 20260509155109 | 10 | 295 | 1.6 | 3.2 | 0.00 | 0.00 | 0.00 | 89 | 1027.2 |
| 20260509155011 | 10 | 295 | 0.0 | 3.2 | 0.00 | 0.00 | 0.00 | 89 | 1027.2 |
| 20260509154911 | 10 | 295 | 0.0 | 3.2 | 0.00 | 0.00 | 0.00 | 89 | 1027.2 |
| 20260509154713 | 10 | 295 | 0.0 | 3.2 | 0.00 | 0.00 | 0.00 | 89 | 1027.2 |
| 20260509154633 | 10 | 295 | 1.6 | 3.2 | 0.00 | 0.00 | 0.00 | 89 | 1027.2 |
| 20260509154613 | 10 | 295 | 1.6 | 3.2 | 0.00 | 0.00 | 0.00 | 89 | 1027.2 |
| 20260509154555 | 10 | 295 | 1.6 | 3.2 | 0.00 | 0.00 | 0.00 | 89 | 1027.2 |
| 20260509154524 | 10 | 295 | 1.6 | 3.2 | 0.00 | 0.00 | 0.00 | 89 | 1027.1 |
| 20260509154212 | 10 | 295 | 1.6 | 3.2 | 0.00 | 0.00 | 0.00 | 88 | 1027.3 |
| 20260509154113 | 10 | 295 | 1.6 | 3.2 | 0.00 | 0.00 | 0.00 | 88 | 1027.2 |
| 20260509154011 | 10 | 295 | 1.6 | 3.2 | 0.00 | 0.00 | 0.00 | 88 | 1027.3 |
| 20260509153910 | 10 | 294 | 0.0 | 3.2 | 0.00 | 0.00 | 0.00 | 88 | 1027.1 |
| 20260509153711 | 10 | 283 | 0.0 | 1.6 | 0.00 | 0.00 | 0.00 | 88 | 1027.2 |
| 20260509153611 | 10 | 283 | 0.0 | 1.6 | 0.00 | 0.00 | 0.00 | 88 | 1027.2 |
| 20260509153514 | 10 | 283 | 0.0 | 1.6 | 0.00 | 0.00 | 0.00 | 88 | 1027.3 |
| 20260509153412 | 10 | 283 | 0.0 | 1.6 | 0.00 | 0.00 | 0.00 | 88 | 1027.3 |
| 20260509153211 | 10 | 283 | 0.0 | 3.2 | 0.00 | 0.00 | 0.00 | 88 | 1027.3 |
| 20260509153111 | 10 | 283 | 0.0 | 3.2 | 0.00 | 0.00 | 0.00 | 88 | 1027.2 |
| 20260509153011 | 10 | 283 | 0.0 | 3.2 | 0.00 | 0.00 | 0.00 | 88 | 1027.3 |
| 20260509152909 | 10 | 283 | 0.0 | 3.2 | 0.00 | 0.00 | 0.00 | 88 | 1027.3 |
| 20260509152716 | 10 | 283 | 0.0 | 3.2 | 0.00 | 0.00 | 0.00 | 88 | 1027.3 |
| 20260509152611 | 10 | 283 | 1.6 | 3.2 | 0.00 | 0.00 | 0.00 | 88 | 1027.3 |
| 20260509152511 | 10 | 283 | 1.6 | 3.2 | 0.00 | 0.00 | 0.00 | 88 | 1027.3 |
| 20260509152411 | 10 | 283 | 1.6 | 3.2 | 0.00 | 0.00 | 0.00 | 88 | 1027.4 |
| 20260509152212 | 10 | 288 | 1.6 | 3.2 | 0.00 | 0.00 | 0.00 | 88 | 1027.3 |
| 20260509152114 | 10 | 288 | 1.6 | 3.2 | 0.00 | 0.00 | 0.00 | 88 | 1027.4 |
| 20260509152010 | 10 | 289 | 1.6 | 3.2 | 0.00 | 0.00 | 0.00 | 88 | 1027.4 |
| 20260509151914 | 10 | 288 | 1.6 | 3.2 | 0.00 | 0.00 | 0.00 | 88 | 1027.3 |
| 20260509151714 | 10 | 277 | 1.6 | 3.2 | 0.00 | 0.00 | 0.00 | 88 | 1027.4 |
| 20260509151614 | 10 | 277 | 1.6 | 3.2 | 0.00 | 0.00 | 0.00 | 88 | 1027.4 |
| 20260509151516 | 10 | 277 | 1.6 | 3.2 | 0.00 | 0.00 | 0.00 | 88 | 1027.4 |
| 20260509151413 | 10 | 270 | 0.0 | 3.2 | 0.00 | 0.00 | 0.00 | 88 | 1027.3 |
| 20260509151214 | 10 | 240 | 0.0 | 1.6 | 0.00 | 0.00 | 0.00 | 88 | 1027.3 |
| 20260509151110 | 10 | 240 | 0.0 | 1.6 | 0.00 | 0.00 | 0.00 | 88 | 1027.4 |
| 20260509151011 | 10 | 240 | 0.0 | 1.6 | 0.00 | 0.00 | 0.00 | 88 | 1027.4 |
| 20260509150912 | 10 | 240 | 0.0 | 0.0 | 0.00 | 0.00 | 0.00 | 88 | 1027.4 |
| 20260509150714 | 10 | 240 | 0.0 | 0.0 | 0.00 | 0.00 | 0.00 | 88 | 1027.3 |
| 20260509150613 | 10 | 240 | 0.0 | 0.0 | 0.00 | 0.00 | 0.00 | 88 | 1027.3 |
| 20260509150513 | 10 | 240 | 0.0 | 0.0 | 0.00 | 0.00 | 0.00 | 88 | 1027.3 |
| 20260509150415 | 10 | 240 | 0.0 | 0.0 | 0.00 | 0.00 | 0.00 | 88 | 1027.3 |
| 20260509150225 | 10 | 240 | 0.0 | 0.0 | 0.00 | 0.00 | 0.00 | 88 | 1027.3 |
| 20260509150110 | 10 | 240 | 0.0 | 0.0 | 0.00 | 0.00 | 0.00 | 88 | 1027.3 |
| 20260509150010 | 10 | 240 | 0.0 | 0.0 | 0.00 | 0.00 | 0.00 | 88 | 1027.4 |
| 20260509145909 | 10 | 240 | 0.0 | 0.0 | 0.00 | 0.00 | 0.00 | 88 | 1027.3 |
| 20260509145712 | 10 | 240 | 0.0 | 0.0 | 0.00 | 0.00 | 0.00 | 88 | 1027.4 |
| 20260509145608 | 10 | 240 | 0.0 | 0.0 | 0.00 | 0.00 | 0.00 | 88 | 1027.3 |
| 20260509145509 | 10 | 240 | 0.0 | 0.0 | 0.00 | 0.00 | 0.00 | 88 | 1027.2 |
| 20260509145411 | 10 | 240 | 0.0 | 0.0 | 0.00 | 0.00 | 0.00 | 87 | 1027.3 |
| 20260509145211 | 10 | 240 | 0.0 | 0.0 | 0.00 | 0.00 | 0.00 | 88 | 1027.3 |
| 20260509145131 | 10 | 240 | 0.0 | 0.0 | 0.00 | 0.00 | 0.00 | 88 | 1027.3 |
| 20260509145015 | 10 | 240 | 0.0 | 0.0 | 0.00 | 0.00 | 0.00 | 88 | 1027.2 |
| 20260509144955 | 10 | 240 | 0.0 | 0.0 | 0.00 | 0.00 | 0.00 | 88 | 1027.2 |
| 20260509144926 | 10 | 240 | 0.0 | 0.0 | 0.00 | 0.00 | 0.00 | 88 | 1027.3 |
| 20260509144715 | 10 | 240 | 0.0 | 0.0 | 0.00 | 0.00 | 0.00 | 88 | 1027.4 |
| 20260509144644 | 11 | 240 | 0.0 | 0.0 | 0.00 | 0.00 | 0.00 | 88 | 1027.3 |
| 20260509144620 | 11 | 240 | 0.0 | 0.0 | 0.00 | 0.00 | 0.00 | 87 | 1027.3 |
| 20260509144557 | 11 | 240 | 0.0 | 0.0 | 0.00 | 0.00 | 0.00 | 87 | 1027.2 |
| 20260509144529 | 11 | 240 | 0.0 | 0.0 | 0.00 | 0.00 | 0.00 | 87 | 1027.3 |
| 20260509144214 | 11 | 240 | 0.0 | 0.0 | 0.00 | 0.00 | 0.00 | 87 | 1027.3 |
| 20260509144109 | 11 | 240 | 0.0 | 0.0 | 0.00 | 0.00 | 0.00 | 87 | 1027.2 |
| 20260509144009 | 11 | 240 | 0.0 | 0.0 | 0.00 | 0.00 | 0.00 | 87 | 1027.3 |
| 20260509143912 | 11 | 240 | 0.0 | 0.0 | 0.00 | 0.00 | 0.00 | 87 | 1027.1 |
| 20260509143712 | 11 | 240 | 0.0 | 0.0 | 0.00 | 0.00 | 0.00 | 87 | 1027.2 |
| 20260509143612 | 11 | 240 | 0.0 | 0.0 | 0.00 | 0.00 | 0.00 | 87 | 1027.2 |
| 20260509143509 | 11 | 240 | 0.0 | 0.0 | 0.00 | 0.00 | 0.00 | 87 | 1027.2 |
| 20260509143402 | 11 | 240 | 0.0 | 0.0 | 0.00 | 0.00 | 0.00 | 87 | 1027.2 |
| 20260509143200 | 11 | 240 | 0.0 | 0.0 | 0.00 | 0.00 | 0.00 | 87 | 1027.3 |
| 20260509143054 | 11 | 240 | 0.0 | 0.0 | 0.00 | 0.00 | 0.00 | 87 | 1027.2 |
| 20260509142955 | 11 | 240 | 0.0 | 0.0 | 0.00 | 0.00 | 0.00 | 87 | 1027.2 |
| 20260509142854 | 11 | 240 | 0.0 | 0.0 | 0.00 | 0.00 | 0.00 | 87 | 1027.2 |
| 20260509142801 | 11 | 240 | 0.0 | 1.6 | 0.00 | 0.00 | 0.00 | 87 | 1027.2 |
| 20260509142643 | 11 | 240 | 0.0 | 1.6 | 0.00 | 0.00 | 0.00 | 87 | 1027.2 |
| 20260509142542 | 11 | 240 | 0.0 | 1.6 | 0.00 | 0.00 | 0.00 | 87 | 1027.1 |
| 20260509142439 | 11 | 240 | 0.0 | 1.6 | 0.00 | 0.00 | 0.00 | 87 | 1027.1 |
| 20260509142340 | 11 | 240 | 0.0 | 1.6 | 0.00 | 0.00 | 0.00 | 87 | 1027.1 |
| 20260509142237 | 11 | 240 | 0.0 | 1.6 | 0.00 | 0.00 | 0.00 | 87 | 1027.1 |
| 20260509142139 | 11 | 240 | 0.0 | 1.6 | 0.00 | 0.00 | 0.00 | 87 | 1027.1 |
| 20260509142039 | 11 | 240 | 0.0 | 1.6 | 0.00 | 0.00 | 0.00 | 87 | 1027.3 |
| 20260509141937 | 11 | 240 | 0.0 | 1.6 | 0.00 | 0.00 | 0.00 | 87 | 1027.2 |
| 20260509141839 | 11 | 240 | 0.0 | 1.6 | 0.00 | 0.00 | 0.00 | 87 | 1027.2 |
| 20260509141737 | 11 | 240 | 0.0 | 1.6 | 0.00 | 0.00 | 0.00 | 87 | 1027.2 |
| 20260509141639 | 11 | 240 | 0.0 | 1.6 | 0.00 | 0.00 | 0.00 | 87 | 1027.2 |
| 20260509141538 | 11 | 240 | 0.0 | 1.6 | 0.00 | 0.00 | 0.00 | 87 | 1027.2 |
| 20260509141439 | 11 | 240 | 0.0 | 1.6 | 0.00 | 0.00 | 0.00 | 87 | 1027.2 |
| 20260509141339 | 11 | 240 | 0.0 | 0.0 | 0.00 | 0.00 | 0.00 | 87 | 1027.1 |
| 20260509141247 | 11 | 240 | 0.0 | 0.0 | 0.00 | 0.00 | 0.00 | 87 | 1027.1 |
| 20260509141138 | 11 | 240 | 0.0 | 0.0 | 0.00 | 0.00 | 0.00 | 87 | 1027.1 |
| 20260509141113 | 11 | 240 | 0.0 | 0.0 | 0.00 | 0.00 | 0.00 | 87 | 1027.1 |
| 20260509141051 | 11 | 240 | 0.0 | 0.0 | 0.00 | 0.00 | 0.00 | 87 | 1027.2 |
| 20260509141031 | 11 | 240 | 0.0 | 0.0 | 0.00 | 0.00 | 0.00 | 87 | 1027.1 |
| 20260509140746 | 11 | 240 | 0.0 | 0.0 | 0.00 | 0.00 | 0.00 | 87 | 1027.1 |
| 20260509140637 | 11 | 240 | 0.0 | 0.0 | 0.00 | 0.00 | 0.00 | 87 | 1027.1 |
| 20260509140537 | 11 | 240 | 0.0 | 0.0 | 0.00 | 0.00 | 0.00 | 86 | 1027.1 |
| 20260509140440 | 11 | 240 | 0.0 | 0.0 | 0.00 | 0.00 | 0.00 | 86 | 1027.1 |
| 20260509140339 | 11 | 240 | 0.0 | 0.0 | 0.00 | 0.00 | 0.00 | 86 | 1027.2 |
| 20260509140242 | 11 | 240 | 0.0 | 0.0 | 0.00 | 0.00 | 0.00 | 86 | 1027.0 |
| 20260509140140 | 11 | 240 | 0.0 | 0.0 | 0.00 | 0.00 | 0.00 | 86 | 1027.1 |
| 20260509140039 | 11 | 240 | 0.0 | 0.0 | 0.00 | 0.00 | 0.00 | 86 | 1027.2 |
| 20260509135923 | 11 | 240 | 0.0 | 0.0 | 0.00 | 0.00 | 0.00 | 86 | 1027.1 |
| 20260509135826 | 11 | 240 | 0.0 | 0.0 | 0.00 | 0.00 | 0.00 | 86 | 1027.1 |
| 20260509135715 | 11 | 240 | 0.0 | 0.0 | 0.00 | 0.00 | 0.00 | 86 | 1027.1 |
| 20260509135618 | 11 | 240 | 0.0 | 0.0 | 0.00 | 0.00 | 0.00 | 86 | 1027.1 |
| 20260509135515 | 11 | 240 | 0.0 | 0.0 | 0.00 | 0.00 | 0.00 | 86 | 1027.1 |
| 20260509135410 | 11 | 240 | 0.0 | 0.0 | 0.00 | 0.00 | 0.00 | 86 | 1027.2 |
| 20260509135230 | 11 | 240 | 0.0 | 0.0 | 0.00 | 0.00 | 0.00 | 86 | 1027.2 |
| 20260509135157 | 11 | 240 | 0.0 | 0.0 | 0.00 | 0.00 | 0.00 | 86 | 1027.3 |
| 20260509135137 | 11 | 240 | 0.0 | 0.0 | 0.00 | 0.00 | 0.00 | 86 | 1027.2 |
| 20260509135118 | 11 | 240 | 0.0 | 0.0 | 0.00 | 0.00 | 0.00 | 86 | 1027.2 |
| 20260509135023 | 11 | 240 | 0.0 | 0.0 | 0.00 | 0.00 | 0.00 | 86 | 1027.2 |
| 20260509134712 | 11 | 240 | 0.0 | 0.0 | 0.00 | 0.00 | 0.00 | 86 | 1027.2 |
| 20260509134611 | 11 | 240 | 0.0 | 0.0 | 0.00 | 0.00 | 0.00 | 86 | 1027.2 |
| 20260509134508 | 11 | 240 | 0.0 | 0.0 | 0.00 | 0.00 | 0.00 | 86 | 1027.2 |
| 20260509134412 | 11 | 240 | 0.0 | 0.0 | 0.00 | 0.00 | 0.00 | 86 | 1027.2 |
| 20260509134212 | 11 | 240 | 0.0 | 0.0 | 0.00 | 0.00 | 0.00 | 86 | 1027.2 |
| 20260509134114 | 11 | 240 | 0.0 | 0.0 | 0.00 | 0.00 | 0.00 | 86 | 1027.2 |
| 20260509134014 | 11 | 240 | 0.0 | 1.6 | 0.00 | 0.00 | 0.00 | 86 | 1027.2 |
| 20260509133911 | 11 | 240 | 0.0 | 1.6 | 0.00 | 0.00 | 0.00 | 86 | 1027.3 |
| 20260509133758 | 11 | 240 | 0.0 | 1.6 | 0.00 | 0.00 | 0.00 | 86 | 1027.2 |
| 20260509133737 | 11 | 240 | 0.0 | 1.6 | 0.00 | 0.00 | 0.00 | 86 | 1027.3 |
| 20260509133712 | 11 | 240 | 0.0 | 1.6 | 0.00 | 0.00 | 0.00 | 86 | 1027.3 |
| 20260509133427 | 11 | 240 | 0.0 | 1.6 | 0.00 | 0.00 | 0.00 | 86 | 1027.2 |
| 20260509133324 | 11 | 240 | 0.0 | 1.6 | 0.00 | 0.00 | 0.00 | 86 | 1027.3 |
| 20260509133259 | 11 | 240 | 0.0 | 1.6 | 0.00 | 0.00 | 0.00 | 86 | 1027.2 |
| 20260509133236 | 11 | 240 | 0.0 | 0.0 | 0.00 | 0.00 | 0.00 | 86 | 1027.2 |
| 20260509133213 | 11 | 240 | 0.0 | 0.0 | 0.00 | 0.00 | 0.00 | 86 | 1027.3 |
| 20260509133151 | 11 | 240 | 0.0 | 0.0 | 0.00 | 0.00 | 0.00 | 86 | 1027.2 |
| 20260509132915 | 11 | 240 | 0.0 | 0.0 | 0.00 | 0.00 | 0.00 | 86 | 1027.2 |
| 20260509132635 | 11 | 240 | 0.0 | 0.0 | 0.00 | 0.00 | 0.00 | 86 | 1027.1 |
| 20260509132607 | 11 | 240 | 0.0 | 0.0 | 0.00 | 0.00 | 0.00 | 86 | 1027.2 |
| 20260509132545 | 11 | 240 | 0.0 | 0.0 | 0.00 | 0.00 | 0.00 | 86 | 1027.2 |
| 20260509132523 | 11 | 240 | 0.0 | 0.0 | 0.00 | 0.00 | 0.00 | 86 | 1027.2 |
| 20260509132216 | 11 | 240 | 0.0 | 1.6 | 0.00 | 0.00 | 0.00 | 86 | 1027.1 |
| 20260509132109 | 11 | 240 | 0.0 | 1.6 | 0.00 | 0.00 | 0.00 | 86 | 1027.2 |
| 20260509132009 | 11 | 240 | 0.0 | 1.6 | 0.00 | 0.00 | 0.00 | 86 | 1027.2 |
| 20260509131909 | 11 | 240 | 0.0 | 1.6 | 0.00 | 0.00 | 0.00 | 86 | 1027.2 |
| 20260509131711 | 11 | 240 | 0.0 | 1.6 | 0.00 | 0.00 | 0.00 | 86 | 1027.2 |
| 20260509131609 | 11 | 240 | 0.0 | 1.6 | 0.00 | 0.00 | 0.00 | 86 | 1027.2 |
| 20260509131510 | 11 | 240 | 0.0 | 1.6 | 0.00 | 0.00 | 0.00 | 86 | 1027.2 |
| 20260509131410 | 11 | 240 | 0.0 | 1.6 | 0.00 | 0.00 | 0.00 | 86 | 1027.2 |
| 20260509131215 | 11 | 240 | 0.0 | 0.0 | 0.00 | 0.00 | 0.00 | 86 | 1027.2 |
| 20260509131109 | 11 | 240 | 0.0 | 0.0 | 0.00 | 0.00 | 0.00 | 86 | 1027.3 |
| 20260509131014 | 11 | 240 | 0.0 | 0.0 | 0.00 | 0.00 | 0.00 | 86 | 1027.2 |
| 20260509130910 | 11 | 240 | 0.0 | 0.0 | 0.00 | 0.00 | 0.00 | 85 | 1027.2 |
| 20260509130717 | 11 | 240 | 0.0 | 0.0 | 0.00 | 0.00 | 0.00 | 85 | 1027.2 |
| 20260509130610 | 11 | 240 | 0.0 | 0.0 | 0.00 | 0.00 | 0.00 | 85 | 1027.2 |
| 20260509130511 | 11 | 240 | 0.0 | 0.0 | 0.00 | 0.00 | 0.00 | 85 | 1027.2 |
| 20260509130409 | 11 | 240 | 0.0 | 0.0 | 0.00 | 0.00 | 0.00 | 85 | 1027.2 |
| 20260509130223 | 11 | 240 | 0.0 | 0.0 | 0.00 | 0.00 | 0.00 | 85 | 1027.2 |
| 20260509130133 | 11 | 240 | 0.0 | 0.0 | 0.00 | 0.00 | 0.00 | 85 | 1027.2 |
| 20260509130111 | 11 | 240 | 0.0 | 0.0 | 0.00 | 0.00 | 0.00 | 85 | 1027.2 |
| 20260509130050 | 11 | 240 | 0.0 | 0.0 | 0.00 | 0.00 | 0.00 | 85 | 1027.3 |
| 20260509130027 | 11 | 240 | 0.0 | 0.0 | 0.00 | 0.00 | 0.00 | 85 | 1027.2 |
| 20260509125715 | 11 | 240 | 0.0 | 0.0 | 0.00 | 0.00 | 0.00 | 85 | 1027.2 |
| 20260509125629 | 11 | 240 | 0.0 | 0.0 | 0.00 | 0.00 | 0.00 | 85 | 1027.2 |
| 20260509125606 | 11 | 240 | 0.0 | 0.0 | 0.00 | 0.00 | 0.00 | 85 | 1027.2 |
| 20260509125545 | 11 | 240 | 0.0 | 0.0 | 0.00 | 0.00 | 0.00 | 85 | 1027.2 |
| 20260509125523 | 11 | 240 | 0.0 | 0.0 | 0.00 | 0.00 | 0.00 | 85 | 1027.2 |
| 20260509125212 | 11 | 240 | 0.0 | 0.0 | 0.00 | 0.00 | 0.00 | 85 | 1027.2 |
| 20260509125109 | 11 | 240 | 0.0 | 0.0 | 0.00 | 0.00 | 0.00 | 85 | 1027.1 |
| 20260509125010 | 11 | 240 | 0.0 | 0.0 | 0.00 | 0.00 | 0.00 | 85 | 1027.1 |
| 20260509124909 | 11 | 240 | 0.0 | 0.0 | 0.00 | 0.00 | 0.00 | 85 | 1027.2 |
| 20260509124716 | 11 | 240 | 0.0 | 1.6 | 0.00 | 0.00 | 0.00 | 85 | 1027.2 |
| 20260509124610 | 11 | 240 | 0.0 | 1.6 | 0.00 | 0.00 | 0.00 | 85 | 1027.1 |
| 20260509124511 | 11 | 240 | 0.0 | 1.6 | 0.00 | 0.00 | 0.00 | 85 | 1027.2 |
| 20260509124410 | 11 | 240 | 0.0 | 1.6 | 0.00 | 0.00 | 0.00 | 85 | 1027.3 |
| 20260509124210 | 11 | 240 | 0.0 | 1.6 | 0.00 | 0.00 | 0.00 | 85 | 1027.2 |
| 20260509124114 | 12 | 240 | 0.0 | 1.6 | 0.00 | 0.00 | 0.00 | 85 | 1027.2 |
| 20260509124011 | 12 | 240 | 0.0 | 1.6 | 0.00 | 0.00 | 0.00 | 85 | 1027.2 |
| 20260509123910 | 12 | 240 | 0.0 | 1.6 | 0.00 | 0.00 | 0.00 | 85 | 1027.2 |
| 20260509123710 | 12 | 269 | 0.0 | 1.6 | 0.00 | 0.00 | 0.00 | 85 | 1027.1 |
| 20260509123612 | 12 | 269 | 0.0 | 1.6 | 0.00 | 0.00 | 0.00 | 85 | 1027.2 |
| 20260509123508 | 12 | 269 | 0.0 | 0.0 | 0.00 | 0.00 | 0.00 | 85 | 1027.2 |
| 20260509123409 | 12 | 269 | 0.0 | 0.0 | 0.00 | 0.00 | 0.00 | 85 | 1027.1 |
| 20260509123211 | 12 | 269 | 0.0 | 0.0 | 0.00 | 0.00 | 0.00 | 85 | 1027.3 |
| 20260509123105 | 12 | 269 | 0.0 | 0.0 | 0.00 | 0.00 | 0.00 | 85 | 1027.2 |
| 20260509122956 | 12 | 269 | 0.0 | 0.0 | 0.00 | 0.00 | 0.00 | 85 | 1027.3 |
| 20260509122855 | 12 | 269 | 0.0 | 0.0 | 0.00 | 0.00 | 0.00 | 85 | 1027.3 |
| 20260509122754 | 12 | 269 | 0.0 | 0.0 | 0.00 | 0.00 | 0.00 | 85 | 1027.2 |
| 20260509122654 | 12 | 269 | 0.0 | 0.0 | 0.00 | 0.00 | 0.00 | 85 | 1027.3 |
| 20260509122550 | 12 | 269 | 0.0 | 0.0 | 0.00 | 0.00 | 0.00 | 85 | 1027.3 |
| 20260509122441 | 12 | 269 | 0.0 | 1.6 | 0.00 | 0.00 | 0.00 | 85 | 1027.3 |
| 20260509122338 | 12 | 269 | 0.0 | 1.6 | 0.00 | 0.00 | 0.00 | 85 | 1027.3 |
| 20260509122237 | 12 | 269 | 0.0 | 1.6 | 0.00 | 0.00 | 0.00 | 85 | 1027.3 |
| 20260509122138 | 12 | 269 | 0.0 | 1.6 | 0.00 | 0.00 | 0.00 | 85 | 1027.3 |
| 20260509122039 | 12 | 269 | 0.0 | 1.6 | 0.00 | 0.00 | 0.00 | 85 | 1027.3 |
| 20260509121941 | 12 | 269 | 0.0 | 1.6 | 0.00 | 0.00 | 0.00 | 85 | 1027.3 |
| 20260509121838 | 12 | 269 | 0.0 | 1.6 | 0.00 | 0.00 | 0.00 | 85 | 1027.3 |
| 20260509121737 | 12 | 269 | 0.0 | 1.6 | 0.00 | 0.00 | 0.00 | 85 | 1027.4 |
| 20260509121639 | 12 | 269 | 0.0 | 1.6 | 0.00 | 0.00 | 0.00 | 85 | 1027.3 |
| 20260509121538 | 12 | 269 | 0.0 | 1.6 | 0.00 | 0.00 | 0.00 | 85 | 1027.3 |
| 20260509121438 | 12 | 269 | 0.0 | 1.6 | 0.00 | 0.00 | 0.00 | 85 | 1027.3 |
| 20260509121342 | 12 | 269 | 0.0 | 1.6 | 0.00 | 0.00 | 0.00 | 85 | 1027.4 |
| 20260509121236 | 12 | 269 | 0.0 | 1.6 | 0.00 | 0.00 | 0.00 | 84 | 1027.3 |
| 20260509121138 | 12 | 269 | 0.0 | 1.6 | 0.00 | 0.00 | 0.00 | 84 | 1027.4 |
| 20260509121039 | 12 | 269 | 0.0 | 1.6 | 0.00 | 0.00 | 0.00 | 85 | 1027.3 |
| 20260509120943 | 12 | 269 | 0.0 | 1.6 | 0.00 | 0.00 | 0.00 | 85 | 1027.4 |
| 20260509120837 | 12 | 116 | 0.0 | 0.0 | 0.00 | 0.00 | 0.00 | 84 | 1027.4 |
| 20260509120738 | 12 | 116 | 0.0 | 0.0 | 0.00 | 0.00 | 0.00 | 84 | 1027.4 |
| 20260509120637 | 12 | 116 | 0.0 | 0.0 | 0.00 | 0.00 | 0.00 | 84 | 1027.3 |
| 20260509120537 | 12 | 116 | 0.0 | 0.0 | 0.00 | 0.00 | 0.00 | 84 | 1027.4 |
| 20260509120444 | 12 | 116 | 0.0 | 0.0 | 0.00 | 0.00 | 0.00 | 84 | 1027.4 |
| 20260509120337 | 12 | 116 | 0.0 | 0.0 | 0.00 | 0.00 | 0.00 | 84 | 1027.4 |
| 20260509120237 | 12 | 116 | 0.0 | 0.0 | 0.00 | 0.00 | 0.00 | 84 | 1027.4 |
| 20260509120141 | 12 | 116 | 0.0 | 0.0 | 0.00 | 0.00 | 0.00 | 84 | 1027.4 |
| 20260509120034 | 12 | 116 | 0.0 | 0.0 | 0.00 | 0.00 | 0.00 | 84 | 1027.3 |
| 20260509115933 | 12 | 116 | 0.0 | 0.0 | 0.00 | 0.00 | 0.00 | 84 | 1027.4 |
| 20260509115828 | 12 | 116 | 0.0 | 0.0 | 0.00 | 0.00 | 0.00 | 84 | 1027.3 |
| 20260509115727 | 12 | 116 | 0.0 | 0.0 | 0.00 | 0.00 | 0.00 | 84 | 1027.3 |
| 20260509115626 | 12 | 116 | 0.0 | 0.0 | 0.00 | 0.00 | 0.00 | 84 | 1027.4 |
| 20260509115525 | 12 | 116 | 0.0 | 0.0 | 0.00 | 0.00 | 0.00 | 84 | 1027.3 |
| 20260509115419 | 12 | 116 | 0.0 | 0.0 | 0.00 | 0.00 | 0.00 | 84 | 1027.3 |
| 20260509115322 | 12 | 116 | 0.0 | 0.0 | 0.00 | 0.00 | 0.00 | 84 | 1027.4 |
| 20260509115213 | 12 | 116 | 0.0 | 0.0 | 0.00 | 0.00 | 0.00 | 84 | 1027.4 |
| 20260509115111 | 12 | 116 | 0.0 | 0.0 | 0.00 | 0.00 | 0.00 | 84 | 1027.3 |
| 20260509115011 | 12 | 116 | 0.0 | 0.0 | 0.00 | 0.00 | 0.00 | 84 | 1027.3 |
| 20260509114938 | 12 | 116 | 0.0 | 0.0 | 0.00 | 0.00 | 0.00 | 84 | 1027.4 |
| 20260509114714 | 12 | 116 | 0.0 | 0.0 | 0.00 | 0.00 | 0.00 | 83 | 1027.3 |
| 20260509114645 | 12 | 116 | 0.0 | 0.0 | 0.00 | 0.00 | 0.00 | 83 | 1027.3 |
| 20260509114613 | 12 | 116 | 0.0 | 0.0 | 0.00 | 0.00 | 0.00 | 83 | 1027.4 |
| 20260509114549 | 12 | 116 | 0.0 | 0.0 | 0.00 | 0.00 | 0.00 | 83 | 1027.3 |
| 20260509114525 | 12 | 116 | 0.0 | 0.0 | 0.00 | 0.00 | 0.00 | 83 | 1027.3 |
| 20260509114210 | 12 | 116 | 0.0 | 0.0 | 0.00 | 0.00 | 0.00 | 83 | 1027.3 |
| 20260509114110 | 12 | 116 | 0.0 | 0.0 | 0.00 | 0.00 | 0.00 | 83 | 1027.4 |
| 20260509114010 | 12 | 116 | 0.0 | 0.0 | 0.00 | 0.00 | 0.00 | 83 | 1027.3 |
| 20260509113908 | 12 | 116 | 0.0 | 0.0 | 0.00 | 0.00 | 0.00 | 83 | 1027.3 |
| 20260509113812 | 12 | 116 | 0.0 | 0.0 | 0.00 | 0.00 | 0.00 | 83 | 1027.3 |
| 20260509113712 | 12 | 116 | 0.0 | 0.0 | 0.00 | 0.00 | 0.00 | 83 | 1027.2 |
| 20260509113610 | 12 | 116 | 0.0 | 0.0 | 0.00 | 0.00 | 0.00 | 83 | 1027.2 |
| 20260509113514 | 12 | 116 | 0.0 | 0.0 | 0.00 | 0.00 | 0.00 | 83 | 1027.3 |
| 20260509113413 | 12 | 116 | 0.0 | 0.0 | 0.00 | 0.00 | 0.00 | 83 | 1027.2 |
| 20260509113309 | 12 | 116 | 0.0 | 0.0 | 0.00 | 0.00 | 0.00 | 83 | 1027.2 |
| 20260509113213 | 12 | 116 | 0.0 | 0.0 | 0.00 | 0.00 | 0.00 | 83 | 1027.2 |
| 20260509113108 | 12 | 116 | 0.0 | 0.0 | 0.00 | 0.00 | 0.00 | 83 | 1027.2 |
| 20260509113000 | 12 | 116 | 0.0 | 0.0 | 0.00 | 0.00 | 0.00 | 83 | 1027.3 |
| 20260509112858 | 12 | 116 | 0.0 | 0.0 | 0.00 | 0.00 | 0.00 | 83 | 1027.2 |
| 20260509112757 | 12 | 116 | 0.0 | 0.0 | 0.00 | 0.00 | 0.00 | 83 | 1027.3 |
| 20260509112648 | 12 | 116 | 0.0 | 0.0 | 0.00 | 0.00 | 0.00 | 82 | 1027.2 |
| 20260509112605 | 12 | 116 | 0.0 | 0.0 | 0.00 | 0.00 | 0.00 | 82 | 1027.2 |
| 20260509112535 | 12 | 116 | 0.0 | 0.0 | 0.00 | 0.00 | 0.00 | 82 | 1027.2 |
| 20260509112516 | 12 | 116 | 0.0 | 0.0 | 0.00 | 0.00 | 0.00 | 82 | 1027.2 |
| 20260509112453 | 12 | 116 | 0.0 | 0.0 | 0.00 | 0.00 | 0.00 | 83 | 1027.3 |
| 20260509112138 | 12 | 116 | 0.0 | 0.0 | 0.00 | 0.00 | 0.00 | 82 | 1027.2 |
| 20260509112042 | 12 | 116 | 0.0 | 0.0 | 0.00 | 0.00 | 0.00 | 82 | 1027.2 |
| 20260509111940 | 12 | 116 | 0.0 | 0.0 | 0.00 | 0.00 | 0.00 | 82 | 1027.3 |
| 20260509111841 | 12 | 116 | 0.0 | 0.0 | 0.00 | 0.00 | 0.00 | 82 | 1027.2 |
| 20260509111640 | 12 | 116 | 0.0 | 0.0 | 0.00 | 0.00 | 0.00 | 82 | 1027.3 |
| 20260509111545 | 12 | 116 | 0.0 | 0.0 | 0.00 | 0.00 | 0.00 | 82 | 1027.3 |
| 20260509111438 | 12 | 116 | 0.0 | 0.0 | 0.00 | 0.00 | 0.00 | 82 | 1027.3 |
| 20260509111339 | 12 | 116 | 0.0 | 0.0 | 0.00 | 0.00 | 0.00 | 82 | 1027.2 |
| 20260509111210 | 12 | 116 | 0.0 | 0.0 | 0.00 | 0.00 | 0.00 | 82 | 1027.2 |
| 20260509111043 | 12 | 116 | 0.0 | 0.0 | 0.00 | 0.00 | 0.00 | 82 | 1027.2 |
| 20260509110939 | 12 | 116 | 0.0 | 0.0 | 0.00 | 0.00 | 0.00 | 82 | 1027.2 |
| 20260509110838 | 12 | 116 | 0.0 | 0.0 | 0.00 | 0.00 | 0.00 | 82 | 1027.2 |
| 20260509110638 | 12 | 116 | 0.0 | 0.0 | 0.00 | 0.00 | 0.00 | 81 | 1027.2 |
| 20260509110537 | 12 | 116 | 0.0 | 0.0 | 0.00 | 0.00 | 0.00 | 82 | 1027.2 |
| 20260509110439 | 12 | 116 | 0.0 | 0.0 | 0.00 | 0.00 | 0.00 | 82 | 1027.2 |
| 20260509110340 | 12 | 116 | 0.0 | 0.0 | 0.00 | 0.00 | 0.00 | 81 | 1027.1 |
| 20260509110237 | 12 | 116 | 0.0 | 0.0 | 0.00 | 0.00 | 0.00 | 81 | 1027.2 |
| 20260509110131 | 12 | 116 | 0.0 | 0.0 | 0.00 | 0.00 | 0.00 | 81 | 1027.2 |
| 20260509110032 | 12 | 116 | 0.0 | 0.0 | 0.00 | 0.00 | 0.00 | 81 | 1027.1 |
| 20260509105932 | 12 | 116 | 0.0 | 0.0 | 0.00 | 0.00 | 0.00 | 81 | 1027.2 |
| 20260509105826 | 12 | 116 | 0.0 | 0.0 | 0.00 | 0.00 | 0.00 | 81 | 1027.1 |
| 20260509105722 | 13 | 116 | 0.0 | 0.0 | 0.00 | 0.00 | 0.00 | 81 | 1027.1 |
| 20260509105614 | 13 | 116 | 0.0 | 0.0 | 0.00 | 0.00 | 0.00 | 81 | 1027.1 |
| 20260509105524 | 13 | 116 | 0.0 | 0.0 | 0.00 | 0.00 | 0.00 | 81 | 1027.3 |
| 20260509105410 | 13 | 116 | 0.0 | 0.0 | 0.00 | 0.00 | 0.00 | 81 | 1027.2 |
| 20260509105309 | 13 | 116 | 0.0 | 0.0 | 0.00 | 0.00 | 0.00 | 81 | 1027.2 |
| 20260509105211 | 13 | 116 | 0.0 | 0.0 | 0.00 | 0.00 | 0.00 | 80 | 1027.1 |
| 20260509105117 | 13 | 116 | 0.0 | 0.0 | 0.00 | 0.00 | 0.00 | 80 | 1027.2 |
| 20260509105101 | 13 | 116 | 0.0 | 0.0 | 0.00 | 0.00 | 0.00 | 80 | 1027.2 |
| 20260509105048 | 13 | 116 | 0.0 | 0.0 | 0.00 | 0.00 | 0.00 | 80 | 1027.1 |
| 20260509105019 | 13 | 116 | 0.0 | 0.0 | 0.00 | 0.00 | 0.00 | 80 | 1027.2 |
| 20260509104954 | 13 | 116 | 0.0 | 0.0 | 0.00 | 0.00 | 0.00 | 80 | 1027.2 |
| 20260509104921 | 13 | 116 | 0.0 | 0.0 | 0.00 | 0.00 | 0.00 | 80 | 1027.1 |
| 20260509104616 | 13 | 116 | 0.0 | 0.0 | 0.00 | 0.00 | 0.00 | 80 | 1027.2 |
| 20260509104549 | 13 | 116 | 0.0 | 0.0 | 0.00 | 0.00 | 0.00 | 80 | 1027.2 |
| 20260509104519 | 13 | 116 | 0.0 | 0.0 | 0.00 | 0.00 | 0.00 | 80 | 1027.1 |
| 20260509104457 | 13 | 116 | 0.0 | 0.0 | 0.00 | 0.00 | 0.00 | 80 | 1027.2 |
| 20260509104217 | 13 | 116 | 0.0 | 0.0 | 0.00 | 0.00 | 0.00 | 80 | 1027.1 |
| 20260509104113 | 13 | 116 | 0.0 | 0.0 | 0.00 | 0.00 | 0.00 | 80 | 1027.2 |
| 20260509104012 | 13 | 116 | 0.0 | 0.0 | 0.00 | 0.00 | 0.00 | 80 | 1027.1 |
| 20260509103911 | 13 | 116 | 0.0 | 0.0 | 0.00 | 0.00 | 0.00 | 80 | 1027.1 |
| 20260509103814 | 13 | 116 | 0.0 | 0.0 | 0.00 | 0.00 | 0.00 | 79 | 1027.1 |
| 20260509103715 | 13 | 116 | 0.0 | 0.0 | 0.00 | 0.00 | 0.00 | 79 | 1027.2 |
| 20260509103610 | 13 | 116 | 0.0 | 0.0 | 0.00 | 0.00 | 0.00 | 79 | 1027.2 |
| 20260509103509 | 13 | 116 | 0.0 | 0.0 | 0.00 | 0.00 | 0.00 | 79 | 1027.2 |
| 20260509103424 | 13 | 116 | 0.0 | 0.0 | 0.00 | 0.00 | 0.00 | 79 | 1027.2 |
| 20260509103309 | 13 | 116 | 0.0 | 0.0 | 0.00 | 0.00 | 0.00 | 79 | 1027.3 |
| 20260509103212 | 13 | 116 | 0.0 | 0.0 | 0.00 | 0.00 | 0.00 | 79 | 1027.2 |
| 20260509103113 | 13 | 116 | 0.0 | 0.0 | 0.00 | 0.00 | 0.00 | 79 | 1027.2 |
| 20260509103013 | 13 | 116 | 0.0 | 0.0 | 0.00 | 0.00 | 0.00 | 79 | 1027.2 |
| 20260509102909 | 13 | 116 | 0.0 | 0.0 | 0.00 | 0.00 | 0.00 | 79 | 1027.3 |
| 20260509102813 | 13 | 116 | 0.0 | 0.0 | 0.00 | 0.00 | 0.00 | 79 | 1027.2 |
| 20260509102712 | 13 | 116 | 0.0 | 0.0 | 0.00 | 0.00 | 0.00 | 79 | 1027.1 |
| 20260509102608 | 13 | 116 | 0.0 | 0.0 | 0.00 | 0.00 | 0.00 | 79 | 1027.1 |
| 20260509102510 | 13 | 116 | 0.0 | 0.0 | 0.00 | 0.00 | 0.00 | 78 | 1027.1 |
| 20260509102414 | 13 | 116 | 0.0 | 0.0 | 0.00 | 0.00 | 0.00 | 78 | 1027.2 |
| 20260509102312 | 13 | 116 | 0.0 | 0.0 | 0.00 | 0.00 | 0.00 | 78 | 1027.1 |
| 20260509102212 | 13 | 116 | 0.0 | 0.0 | 0.00 | 0.00 | 0.00 | 78 | 1027.1 |
| 20260509102110 | 13 | 116 | 0.0 | 0.0 | 0.00 | 0.00 | 0.00 | 78 | 1027.0 |
| 20260509102009 | 13 | 116 | 0.0 | 0.0 | 0.00 | 0.00 | 0.00 | 78 | 1027.0 |
| 20260509101915 | 13 | 116 | 0.0 | 0.0 | 0.00 | 0.00 | 0.00 | 78 | 1027.1 |
| 20260509101830 | 13 | 116 | 0.0 | 0.0 | 0.00 | 0.00 | 0.00 | 78 | 1027.1 |
| 20260509101712 | 13 | 116 | 0.0 | 1.6 | 0.00 | 0.00 | 0.00 | 78 | 1027.1 |
| 20260509101612 | 13 | 116 | 0.0 | 1.6 | 0.00 | 0.00 | 0.00 | 78 | 1027.1 |
| 20260509101512 | 13 | 116 | 0.0 | 1.6 | 0.00 | 0.00 | 0.00 | 78 | 1027.0 |
| 20260509101412 | 13 | 116 | 0.0 | 1.6 | 0.00 | 0.00 | 0.00 | 77 | 1027.1 |
| 20260509101316 | 13 | 116 | 0.0 | 1.6 | 0.00 | 0.00 | 0.00 | 77 | 1027.0 |
| 20260509101213 | 13 | 116 | 0.0 | 1.6 | 0.00 | 0.00 | 0.00 | 77 | 1027.1 |
| 20260509101110 | 13 | 116 | 0.0 | 1.6 | 0.00 | 0.00 | 0.00 | 77 | 1027.0 |
| 20260509101012 | 13 | 116 | 0.0 | 1.6 | 0.00 | 0.00 | 0.00 | 77 | 1027.0 |
| 20260509100909 | 13 | 116 | 0.0 | 1.6 | 0.00 | 0.00 | 0.00 | 77 | 1027.0 |
| 20260509100815 | 13 | 116 | 0.0 | 1.6 | 0.00 | 0.00 | 0.00 | 77 | 1027.0 |
| 20260509100714 | 13 | 116 | 0.0 | 1.6 | 0.00 | 0.00 | 0.00 | 77 | 1026.9 |
| 20260509100620 | 13 | 116 | 0.0 | 1.6 | 0.00 | 0.00 | 0.00 | 77 | 1026.9 |
| 20260509100559 | 13 | 116 | 0.0 | 1.6 | 0.00 | 0.00 | 0.00 | 77 | 1026.9 |
| 20260509100525 | 13 | 116 | 0.0 | 1.6 | 0.00 | 0.00 | 0.00 | 77 | 1026.8 |
| 20260509100502 | 13 | 116 | 0.0 | 1.6 | 0.00 | 0.00 | 0.00 | 77 | 1026.9 |
| 20260509100200 | 13 | 116 | 0.0 | 1.6 | 0.00 | 0.00 | 0.00 | 77 | 1026.8 |
| 20260509095959 | 13 | 116 | 0.0 | 1.6 | 0.00 | 0.00 | 0.00 | 77 | 1026.8 |
| 20260509095850 | 13 | 116 | 0.0 | 1.6 | 0.00 | 0.00 | 0.00 | 77 | 1027.0 |
| 20260509095650 | 13 | 116 | 0.0 | 1.6 | 0.00 | 0.00 | 0.00 | 76 | 1027.0 |
| 20260509095543 | 14 | 116 | 0.0 | 1.6 | 0.00 | 0.00 | 0.00 | 76 | 1026.9 |
| 20260509095441 | 14 | 116 | 0.0 | 1.6 | 0.00 | 0.00 | 0.00 | 76 | 1026.9 |
| 20260509095340 | 14 | 116 | 0.0 | 1.6 | 0.00 | 0.00 | 0.00 | 76 | 1026.8 |
| 20260509095141 | 14 | 116 | 0.0 | 0.0 | 0.00 | 0.00 | 0.00 | 76 | 1026.9 |
| 20260509095039 | 14 | 116 | 0.0 | 0.0 | 0.00 | 0.00 | 0.00 | 76 | 1026.8 |
| 20260509094942 | 14 | 116 | 0.0 | 0.0 | 0.00 | 0.00 | 0.00 | 76 | 1026.8 |
| 20260509094837 | 14 | 116 | 0.0 | 0.0 | 0.00 | 0.00 | 0.00 | 76 | 1026.9 |
| 20260509094642 | 14 | 116 | 0.0 | 0.0 | 0.00 | 0.00 | 0.00 | 75 | 1026.9 |
| 20260509094537 | 14 | 116 | 0.0 | 0.0 | 0.00 | 0.00 | 0.00 | 75 | 1026.8 |
| 20260509094442 | 14 | 116 | 0.0 | 0.0 | 0.00 | 0.00 | 0.00 | 75 | 1026.7 |
| 20260509094337 | 14 | 116 | 0.0 | 0.0 | 0.00 | 0.00 | 0.00 | 75 | 1026.8 |
| 20260509094141 | 14 | 116 | 0.0 | 0.0 | 0.00 | 0.00 | 0.00 | 75 | 1026.8 |
| 20260509094037 | 14 | 116 | 0.0 | 0.0 | 0.00 | 0.00 | 0.00 | 75 | 1026.8 |
| 20260509093939 | 14 | 116 | 0.0 | 0.0 | 0.00 | 0.00 | 0.00 | 75 | 1026.7 |
| 20260509093839 | 14 | 116 | 0.0 | 0.0 | 0.00 | 0.00 | 0.00 | 75 | 1026.7 |
| 20260509093636 | 14 | 116 | 0.0 | 0.0 | 0.00 | 0.00 | 0.00 | 75 | 1026.7 |
| 20260509093538 | 14 | 116 | 0.0 | 0.0 | 0.00 | 0.00 | 0.00 | 75 | 1026.7 |
| 20260509093441 | 14 | 116 | 0.0 | 0.0 | 0.00 | 0.00 | 0.00 | 74 | 1026.7 |
| 20260509093339 | 14 | 116 | 0.0 | 1.6 | 0.00 | 0.00 | 0.00 | 74 | 1026.7 |
| 20260509093137 | 14 | 116 | 0.0 | 1.6 | 0.00 | 0.00 | 0.00 | 74 | 1026.7 |
| 20260509093040 | 14 | 116 | 0.0 | 1.6 | 0.00 | 0.00 | 0.00 | 74 | 1026.7 |
| 20260509092938 | 14 | 116 | 0.0 | 1.6 | 0.00 | 0.00 | 0.00 | 74 | 1026.7 |
| 20260509092833 | 14 | 116 | 0.0 | 1.6 | 0.00 | 0.00 | 0.00 | 74 | 1026.8 |
| 20260509092729 | 15 | 116 | 0.0 | 1.6 | 0.00 | 0.00 | 0.00 | 74 | 1026.7 |
| 20260509092618 | 15 | 116 | 0.0 | 1.6 | 0.00 | 0.00 | 0.00 | 74 | 1026.6 |
| 20260509092516 | 15 | 116 | 0.0 | 1.6 | 0.00 | 0.00 | 0.00 | 74 | 1026.6 |
| 20260509092413 | 15 | 116 | 0.0 | 1.6 | 0.00 | 0.00 | 0.00 | 73 | 1026.6 |
| 20260509092312 | 15 | 116 | 0.0 | 0.0 | 0.00 | 0.00 | 0.00 | 73 | 1026.6 |
| 20260509092210 | 15 | 116 | 0.0 | 0.0 | 0.00 | 0.00 | 0.00 | 73 | 1026.6 |
| 20260509092109 | 15 | 116 | 0.0 | 0.0 | 0.00 | 0.00 | 0.00 | 74 | 1026.6 |
| 20260509092009 | 15 | 116 | 0.0 | 0.0 | 0.00 | 0.00 | 0.00 | 73 | 1026.6 |
| 20260509091910 | 15 | 116 | 0.0 | 0.0 | 0.00 | 0.00 | 0.00 | 73 | 1026.5 |
| 20260509091813 | 15 | 116 | 0.0 | 0.0 | 0.00 | 0.00 | 0.00 | 73 | 1026.6 |
| 20260509091713 | 15 | 116 | 0.0 | 0.0 | 0.00 | 0.00 | 0.00 | 73 | 1026.6 |
| 20260509091613 | 15 | 116 | 0.0 | 0.0 | 0.00 | 0.00 | 0.00 | 73 | 1026.5 |
| 20260509091511 | 15 | 116 | 0.0 | 0.0 | 0.00 | 0.00 | 0.00 | 73 | 1026.6 |
| 20260509091413 | 15 | 116 | 0.0 | 0.0 | 0.00 | 0.00 | 0.00 | 73 | 1026.7 |
| 20260509091312 | 15 | 116 | 0.0 | 0.0 | 0.00 | 0.00 | 0.00 | 73 | 1026.5 |
| 20260509091211 | 15 | 116 | 0.0 | 0.0 | 0.00 | 0.00 | 0.00 | 73 | 1026.5 |
| 20260509091112 | 15 | 116 | 0.0 | 0.0 | 0.00 | 0.00 | 0.00 | 73 | 1026.4 |
| 20260509091014 | 15 | 116 | 0.0 | 0.0 | 0.00 | 0.00 | 0.00 | 73 | 1026.5 |
| 20260509090910 | 15 | 116 | 0.0 | 0.0 | 0.00 | 0.00 | 0.00 | 72 | 1026.5 |
| 20260509090813 | 15 | 116 | 0.0 | 0.0 | 0.00 | 0.00 | 0.00 | 72 | 1026.5 |
| 20260509090711 | 15 | 116 | 0.0 | 0.0 | 0.00 | 0.00 | 0.00 | 73 | 1026.4 |
| 20260509090614 | 15 | 116 | 0.0 | 0.0 | 0.00 | 0.00 | 0.00 | 72 | 1026.4 |
| 20260509090513 | 15 | 116 | 0.0 | 0.0 | 0.00 | 0.00 | 0.00 | 72 | 1026.5 |
| 20260509090410 | 15 | 116 | 0.0 | 0.0 | 0.00 | 0.00 | 0.00 | 72 | 1026.4 |
| 20260509090310 | 15 | 116 | 0.0 | 0.0 | 0.00 | 0.00 | 0.00 | 72 | 1026.3 |
| 20260509090212 | 15 | 116 | 0.0 | 0.0 | 0.00 | 0.00 | 0.00 | 72 | 1026.3 |
| 20260509090106 | 15 | 116 | 0.0 | 0.0 | 0.00 | 0.00 | 0.00 | 72 | 1026.4 |
| 20260509090009 | 15 | 116 | 0.0 | 0.0 | 0.00 | 0.00 | 0.00 | 72 | 1026.4 |
| 20260509085907 | 15 | 116 | 0.0 | 0.0 | 0.00 | 0.00 | 0.00 | 72 | 1026.4 |
| 20260509085753 | 15 | 116 | 0.0 | 0.0 | 0.00 | 0.00 | 0.00 | 71 | 1026.3 |
| 20260509085652 | 15 | 116 | 0.0 | 0.0 | 0.00 | 0.00 | 0.00 | 71 | 1026.3 |
| 20260509085543 | 15 | 116 | 0.0 | 0.0 | 0.00 | 0.00 | 0.00 | 71 | 1026.3 |
| 20260509085438 | 15 | 116 | 0.0 | 0.0 | 0.00 | 0.00 | 0.00 | 71 | 1026.3 |
| 20260509085338 | 15 | 116 | 0.0 | 0.0 | 0.00 | 0.00 | 0.00 | 71 | 1026.3 |
| 20260509085238 | 15 | 116 | 0.0 | 0.0 | 0.00 | 0.00 | 0.00 | 70 | 1026.3 |
| 20260509085142 | 15 | 116 | 0.0 | 0.0 | 0.00 | 0.00 | 0.00 | 70 | 1026.3 |
| 20260509085039 | 15 | 116 | 0.0 | 0.0 | 0.00 | 0.00 | 0.00 | 70 | 1026.2 |
| 20260509084940 | 15 | 116 | 0.0 | 0.0 | 0.00 | 0.00 | 0.00 | 70 | 1026.3 |
| 20260509084839 | 15 | 116 | 0.0 | 0.0 | 0.00 | 0.00 | 0.00 | 70 | 1026.3 |
| 20260509084746 | 15 | 116 | 0.0 | 0.0 | 0.00 | 0.00 | 0.00 | 70 | 1026.2 |
| 20260509084642 | 15 | 116 | 0.0 | 0.0 | 0.00 | 0.00 | 0.00 | 70 | 1026.3 |
| 20260509084536 | 15 | 116 | 0.0 | 0.0 | 0.00 | 0.00 | 0.00 | 69 | 1026.2 |
| 20260509084436 | 15 | 116 | 0.0 | 0.0 | 0.00 | 0.00 | 0.00 | 69 | 1026.2 |
| 20260509084339 | 15 | 116 | 0.0 | 0.0 | 0.00 | 0.00 | 0.00 | 69 | 1026.2 |
| 20260509084239 | 15 | 116 | 0.0 | 0.0 | 0.00 | 0.00 | 0.00 | 69 | 1026.3 |
| 20260509084143 | 15 | 116 | 0.0 | 0.0 | 0.00 | 0.00 | 0.00 | 69 | 1026.2 |
| 20260509084040 | 15 | 116 | 0.0 | 0.0 | 0.00 | 0.00 | 0.00 | 68 | 1026.2 |
| 20260509083939 | 15 | 116 | 0.0 | 0.0 | 0.00 | 0.00 | 0.00 | 68 | 1026.3 |
| 20260509083840 | 15 | 116 | 0.0 | 0.0 | 0.00 | 0.00 | 0.00 | 68 | 1026.2 |
| 20260509083737 | 15 | 116 | 0.0 | 0.0 | 0.00 | 0.00 | 0.00 | 68 | 1026.2 |
| 20260509083639 | 15 | 116 | 0.0 | 0.0 | 0.00 | 0.00 | 0.00 | 68 | 1026.2 |
| 20260509083539 | 15 | 116 | 0.0 | 0.0 | 0.00 | 0.00 | 0.00 | 67 | 1026.1 |
| 20260509083438 | 15 | 116 | 0.0 | 0.0 | 0.00 | 0.00 | 0.00 | 67 | 1026.2 |
| 20260509083338 | 16 | 116 | 0.0 | 0.0 | 0.00 | 0.00 | 0.00 | 67 | 1026.2 |
| 20260509083237 | 16 | 116 | 0.0 | 0.0 | 0.00 | 0.00 | 0.00 | 67 | 1026.2 |
| 20260509083140 | 16 | 116 | 0.0 | 0.0 | 0.00 | 0.00 | 0.00 | 67 | 1026.1 |
| 20260509083035 | 16 | 116 | 0.0 | 0.0 | 0.00 | 0.00 | 0.00 | 67 | 1026.1 |
| 20260509082936 | 16 | 116 | 0.0 | 0.0 | 0.00 | 0.00 | 0.00 | 67 | 1026.0 |
| 20260509082830 | 16 | 116 | 0.0 | 0.0 | 0.00 | 0.00 | 0.00 | 67 | 1026.1 |
| 20260509082728 | 16 | 116 | 0.0 | 0.0 | 0.00 | 0.00 | 0.00 | 67 | 1026.0 |
| 20260509082623 | 16 | 116 | 0.0 | 0.0 | 0.00 | 0.00 | 0.00 | 67 | 1026.1 |
| 20260509082516 | 16 | 116 | 0.0 | 0.0 | 0.00 | 0.00 | 0.00 | 67 | 1026.0 |
| 20260509082413 | 16 | 116 | 0.0 | 0.0 | 0.00 | 0.00 | 0.00 | 67 | 1026.1 |
| 20260509082311 | 16 | 116 | 0.0 | 0.0 | 0.00 | 0.00 | 0.00 | 67 | 1026.1 |
| 20260509082112 | 16 | 116 | 0.0 | 0.0 | 0.00 | 0.00 | 0.00 | 67 | 1026.0 |
| 20260509082013 | 16 | 116 | 0.0 | 0.0 | 0.00 | 0.00 | 0.00 | 67 | 1026.0 |
| 20260509081911 | 16 | 116 | 0.0 | 0.0 | 0.00 | 0.00 | 0.00 | 67 | 1026.0 |
| 20260509081812 | 16 | 116 | 0.0 | 0.0 | 0.00 | 0.00 | 0.00 | 67 | 1026.0 |
| 20260509081610 | 16 | 116 | 0.0 | 0.0 | 0.00 | 0.00 | 0.00 | 67 | 1026.0 |
| 20260509081509 | 16 | 116 | 0.0 | 0.0 | 0.00 | 0.00 | 0.00 | 67 | 1025.9 |
| 20260509081412 | 16 | 116 | 0.0 | 0.0 | 0.00 | 0.00 | 0.00 | 67 | 1026.0 |
| 20260509081337 | 16 | 116 | 0.0 | 0.0 | 0.00 | 0.00 | 0.00 | 67 | 1025.9 |
| 20260509081235 | 16 | 116 | 0.0 | 0.0 | 0.00 | 0.00 | 0.00 | 66 | 1025.8 |
| 20260509081213 | 16 | 116 | 0.0 | 0.0 | 0.00 | 0.00 | 0.00 | 67 | 1025.8 |
| 20260509080909 | 16 | 116 | 0.0 | 0.0 | 0.00 | 0.00 | 0.00 | 66 | 1025.7 |
| 20260509080813 | 16 | 116 | 0.0 | 0.0 | 0.00 | 0.00 | 0.00 | 66 | 1025.7 |
| 20260509080731 | 16 | 116 | 0.0 | 0.0 | 0.00 | 0.00 | 0.00 | 66 | 1025.8 |
| 20260509080617 | 16 | 116 | 0.0 | 0.0 | 0.00 | 0.00 | 0.00 | 66 | 1025.6 |
| 20260509080509 | 16 | 116 | 0.0 | 0.0 | 0.00 | 0.00 | 0.00 | 66 | 1025.8 |
| 20260509080410 | 16 | 116 | 0.0 | 0.0 | 0.00 | 0.00 | 0.00 | 66 | 1025.8 |
| 20260509080314 | 16 | 116 | 0.0 | 0.0 | 0.00 | 0.00 | 0.00 | 66 | 1025.8 |
| 20260509080109 | 16 | 116 | 0.0 | 0.0 | 0.00 | 0.00 | 0.00 | 66 | 1025.8 |
| 20260509080004 | 17 | 116 | 0.0 | 0.0 | 0.00 | 0.00 | 0.00 | 66 | 1025.8 |
| 20260509075901 | 17 | 116 | 0.0 | 0.0 | 0.00 | 0.00 | 0.00 | 66 | 1025.8 |
| 20260509075756 | 17 | 116 | 0.0 | 0.0 | 0.00 | 0.00 | 0.00 | 66 | 1025.7 |
| 20260509075646 | 17 | 116 | 0.0 | 0.0 | 0.00 | 0.00 | 0.00 | 66 | 1025.8 |
| 20260509075542 | 17 | 116 | 0.0 | 0.0 | 0.00 | 0.00 | 0.00 | 66 | 1025.8 |
| 20260509075439 | 17 | 116 | 0.0 | 0.0 | 0.00 | 0.00 | 0.00 | 66 | 1025.7 |
| 20260509075339 | 17 | 116 | 0.0 | 1.6 | 0.00 | 0.00 | 0.00 | 66 | 1025.7 |
| 20260509075246 | 17 | 116 | 0.0 | 1.6 | 0.00 | 0.00 | 0.00 | 66 | 1025.7 |
| 20260509075136 | 17 | 116 | 0.0 | 1.6 | 0.00 | 0.00 | 0.00 | 66 | 1025.7 |
| 20260509075039 | 17 | 116 | 0.0 | 1.6 | 0.00 | 0.00 | 0.00 | 66 | 1025.7 |
| 20260509074938 | 17 | 116 | 0.0 | 1.6 | 0.00 | 0.00 | 0.00 | 66 | 1025.7 |
| 20260509074837 | 17 | 116 | 0.0 | 1.6 | 0.00 | 0.00 | 0.00 | 66 | 1025.6 |
| 20260509074743 | 17 | 116 | 0.0 | 1.6 | 0.00 | 0.00 | 0.00 | 66 | 1025.7 |
| 20260509074641 | 17 | 116 | 0.0 | 1.6 | 0.00 | 0.00 | 0.00 | 66 | 1025.6 |
| 20260509074540 | 17 | 116 | 0.0 | 1.6 | 0.00 | 0.00 | 0.00 | 66 | 1025.6 |
| 20260509074438 | 17 | 116 | 0.0 | 3.2 | 0.00 | 0.00 | 0.00 | 66 | 1025.6 |
| 20260509074337 | 17 | 116 | 0.0 | 3.2 | 0.00 | 0.00 | 0.00 | 66 | 1025.5 |
| 20260509074236 | 17 | 116 | 0.0 | 3.2 | 0.00 | 0.00 | 0.00 | 66 | 1025.5 |
| 20260509074139 | 17 | 116 | 0.0 | 3.2 | 0.00 | 0.00 | 0.00 | 66 | 1025.5 |
| 20260509074037 | 17 | 116 | 0.0 | 3.2 | 0.00 | 0.00 | 0.00 | 66 | 1025.4 |
| 20260509073939 | 17 | 116 | 0.0 | 3.2 | 0.00 | 0.00 | 0.00 | 65 | 1025.5 |
| 20260509073838 | 17 | 119 | 0.0 | 3.2 | 0.00 | 0.00 | 0.00 | 65 | 1025.5 |
| 20260509073740 | 17 | 119 | 0.0 | 3.2 | 0.00 | 0.00 | 0.00 | 65 | 1025.5 |
| 20260509073636 | 17 | 119 | 0.0 | 3.2 | 0.00 | 0.00 | 0.00 | 65 | 1025.4 |
| 20260509073538 | 17 | 114 | 0.0 | 6.4 | 0.00 | 0.00 | 0.00 | 65 | 1025.4 |
| 20260509073436 | 17 | 114 | 0.0 | 6.4 | 0.00 | 0.00 | 0.00 | 65 | 1025.4 |
| 20260509073340 | 17 | 118 | 0.0 | 6.4 | 0.00 | 0.00 | 0.00 | 65 | 1025.4 |
| 20260509073238 | 17 | 124 | 0.0 | 6.4 | 0.00 | 0.00 | 0.00 | 65 | 1025.5 |
| 20260509073138 | 17 | 99 | 0.0 | 6.4 | 0.00 | 0.00 | 0.00 | 65 | 1025.4 |
| 20260509073023 | 17 | 115 | 0.0 | 6.4 | 0.00 | 0.00 | 0.00 | 64 | 1025.3 |
| 20260509072918 | 17 | 115 | 1.6 | 6.4 | 0.00 | 0.00 | 0.00 | 64 | 1025.5 |
| 20260509072818 | 17 | 101 | 1.6 | 6.4 | 0.00 | 0.00 | 0.00 | 64 | 1025.4 |
| 20260509072728 | 17 | 101 | 0.0 | 6.4 | 0.00 | 0.00 | 0.00 | 64 | 1025.4 |
| 20260509072614 | 17 | 107 | 0.0 | 3.2 | 0.00 | 0.00 | 0.00 | 64 | 1025.4 |
| 20260509072538 | 17 | 111 | 0.0 | 1.6 | 0.00 | 0.00 | 0.00 | 64 | 1025.4 |
| 20260509072520 | 18 | 111 | 0.0 | 1.6 | 0.00 | 0.00 | 0.00 | 64 | 1025.4 |
| 20260509072458 | 18 | 111 | 0.0 | 1.6 | 0.00 | 0.00 | 0.00 | 64 | 1025.4 |
| 20260509072432 | 18 | 116 | 0.0 | 6.4 | 0.00 | 0.00 | 0.00 | 63 | 1025.3 |
| 20260509072111 | 18 | 116 | 0.0 | 6.4 | 0.00 | 0.00 | 0.00 | 63 | 1025.4 |
| 20260509072013 | 18 | 119 | 0.0 | 6.4 | 0.00 | 0.00 | 0.00 | 63 | 1025.3 |
| 20260509071912 | 18 | 110 | 0.0 | 6.4 | 0.00 | 0.00 | 0.00 | 63 | 1025.4 |
| 20260509071813 | 18 | 110 | 0.0 | 6.4 | 0.00 | 0.00 | 0.00 | 63 | 1025.4 |
| 20260509071610 | 18 | 110 | 0.0 | 6.4 | 0.00 | 0.00 | 0.00 | 63 | 1025.3 |
| 20260509071511 | 18 | 113 | 1.6 | 6.4 | 0.00 | 0.00 | 0.00 | 63 | 1025.4 |
| 20260509071409 | 18 | 101 | 1.6 | 6.4 | 0.00 | 0.00 | 0.00 | 63 | 1025.3 |
| 20260509071312 | 18 | 101 | 1.6 | 6.4 | 0.00 | 0.00 | 0.00 | 63 | 1025.4 |
| 20260509071109 | 18 | 108 | 0.0 | 6.4 | 0.00 | 0.00 | 0.00 | 62 | 1025.3 |
| 20260509071013 | 18 | 131 | 1.6 | 6.4 | 0.00 | 0.00 | 0.00 | 62 | 1025.3 |
| 20260509070913 | 18 | 131 | 3.2 | 6.4 | 0.00 | 0.00 | 0.00 | 62 | 1025.3 |
| 20260509070814 | 18 | 109 | 3.2 | 6.4 | 0.00 | 0.00 | 0.00 | 62 | 1025.3 |
| 20260509070612 | 18 | 94 | 1.6 | 6.4 | 0.00 | 0.00 | 0.00 | 62 | 1025.3 |
| 20260509070511 | 18 | 111 | 3.2 | 6.4 | 0.00 | 0.00 | 0.00 | 62 | 1025.3 |
| 20260509070409 | 18 | 103 | 1.6 | 6.4 | 0.00 | 0.00 | 0.00 | 61 | 1025.1 |
| 20260509070309 | 18 | 102 | 1.6 | 6.4 | 0.00 | 0.00 | 0.00 | 61 | 1025.1 |
| 20260509070223 | 18 | 98 | 1.6 | 6.4 | 0.00 | 0.00 | 0.00 | 61 | 1025.2 |
| 20260509070109 | 18 | 126 | 1.6 | 6.4 | 0.00 | 0.00 | 0.00 | 61 | 1025.0 |
| 20260509070011 | 18 | 113 | 0.0 | 6.4 | 0.00 | 0.00 | 0.00 | 61 | 1025.1 |
| 20260509065912 | 18 | 94 | 0.0 | 6.4 | 0.00 | 0.00 | 0.00 | 61 | 1025.0 |
| 20260509065817 | 18 | 111 | 0.0 | 6.4 | 0.00 | 0.00 | 0.00 | 61 | 1025.1 |
| 20260509065717 | 18 | 111 | 0.0 | 6.4 | 0.00 | 0.00 | 0.00 | 61 | 1025.0 |
| 20260509065613 | 18 | 108 | 0.0 | 6.4 | 0.00 | 0.00 | 0.00 | 61 | 1025.0 |
| 20260509065452 | 18 | 108 | 3.2 | 6.4 | 0.00 | 0.00 | 0.00 | 61 | 1024.9 |
| 20260509065344 | 18 | 106 | 3.2 | 6.4 | 0.00 | 0.00 | 0.00 | 61 | 1024.9 |
| 20260509065239 | 18 | 88 | 3.2 | 6.4 | 0.00 | 0.00 | 0.00 | 61 | 1024.9 |
| 20260509065137 | 18 | 111 | 3.2 | 9.7 | 0.00 | 0.00 | 0.00 | 61 | 1024.8 |
| 20260509065040 | 18 | 107 | 0.0 | 9.7 | 0.00 | 0.00 | 0.00 | 61 | 1024.8 |
| 20260509064939 | 18 | 154 | 0.0 | 9.7 | 0.00 | 0.00 | 0.00 | 61 | 1024.8 |
| 20260509064840 | 18 | 130 | 0.0 | 9.7 | 0.00 | 0.00 | 0.00 | 61 | 1024.8 |
| 20260509064739 | 18 | 142 | 0.0 | 9.7 | 0.00 | 0.00 | 0.00 | 61 | 1024.7 |
| 20260509064645 | 18 | 119 | 0.0 | 9.7 | 0.00 | 0.00 | 0.00 | 61 | 1024.8 |
| 20260509064537 | 18 | 134 | 0.0 | 9.7 | 0.00 | 0.00 | 0.00 | 61 | 1024.8 |
| 20260509064439 | 18 | 115 | 0.0 | 9.7 | 0.00 | 0.00 | 0.00 | 61 | 1024.7 |
| 20260509064343 | 18 | 115 | 3.2 | 9.7 | 0.00 | 0.00 | 0.00 | 61 | 1024.8 |
| 20260509064240 | 18 | 109 | 3.2 | 9.7 | 0.00 | 0.00 | 0.00 | 61 | 1024.7 |
| 20260509064140 | 18 | 113 | 1.6 | 6.4 | 0.00 | 0.00 | 0.00 | 61 | 1024.7 |
| 20260509064037 | 18 | 112 | 0.0 | 4.8 | 0.00 | 0.00 | 0.00 | 60 | 1024.7 |
| 20260509063940 | 18 | 105 | 0.0 | 4.8 | 0.00 | 0.00 | 0.00 | 60 | 1024.7 |
| 20260509063839 | 19 | 105 | 1.6 | 4.8 | 0.00 | 0.00 | 0.00 | 60 | 1024.6 |
| 20260509063736 | 19 | 105 | 1.6 | 4.8 | 0.00 | 0.00 | 0.00 | 60 | 1024.6 |
| 20260509063642 | 19 | 122 | 1.6 | 4.8 | 0.00 | 0.00 | 0.00 | 60 | 1024.6 |
| 20260509063537 | 19 | 109 | 1.6 | 4.8 | 0.00 | 0.00 | 0.00 | 60 | 1024.6 |
| 20260509063442 | 19 | 123 | 1.6 | 4.8 | 0.00 | 0.00 | 0.00 | 60 | 1024.6 |
| 20260509063336 | 19 | 150 | 0.0 | 4.8 | 0.00 | 0.00 | 0.00 | 60 | 1024.6 |
| 20260509063238 | 19 | 114 | 0.0 | 8.0 | 0.00 | 0.00 | 0.00 | 60 | 1024.6 |
| 20260509063137 | 19 | 128 | 0.0 | 12.9 | 0.00 | 0.00 | 0.00 | 59 | 1024.6 |
| 20260509063038 | 19 | 119 | 0.0 | 12.9 | 0.00 | 0.00 | 0.00 | 59 | 1024.6 |
| 20260509062940 | 19 | 119 | 0.0 | 12.9 | 0.00 | 0.00 | 0.00 | 59 | 1024.6 |
| 20260509062837 | 19 | 138 | 0.0 | 12.9 | 0.00 | 0.00 | 0.00 | 59 | 1024.6 |
| 20260509062727 | 19 | 121 | 1.6 | 12.9 | 0.00 | 0.00 | 0.00 | 59 | 1024.6 |
| 20260509062623 | 19 | 104 | 1.6 | 12.9 | 0.00 | 0.00 | 0.00 | 59 | 1024.7 |
| 20260509062518 | 19 | 123 | 0.0 | 12.9 | 0.00 | 0.00 | 0.00 | 59 | 1024.7 |
| 20260509062419 | 19 | 119 | 4.8 | 12.9 | 0.00 | 0.00 | 0.00 | 59 | 1024.6 |
| 20260509062316 | 19 | 163 | 3.2 | 12.9 | 0.00 | 0.00 | 0.00 | 59 | 1024.6 |
| 20260509062209 | 19 | 170 | 0.0 | 12.9 | 0.00 | 0.00 | 0.00 | 59 | 1024.6 |
| 20260509062112 | 19 | 162 | 0.0 | 11.3 | 0.00 | 0.00 | 0.00 | 59 | 1024.6 |
| 20260509062009 | 19 | 154 | 0.0 | 11.3 | 0.00 | 0.00 | 0.00 | 59 | 1024.6 |
| 20260509061909 | 19 | 130 | 1.6 | 11.3 | 0.00 | 0.00 | 0.00 | 59 | 1024.6 |
| 20260509061813 | 20 | 109 | 1.6 | 11.3 | 0.00 | 0.00 | 0.00 | 59 | 1024.5 |
| 20260509061712 | 20 | 150 | 3.2 | 11.3 | 0.00 | 0.00 | 0.00 | 59 | 1024.6 |
| 20260509061617 | 20 | 138 | 4.8 | 11.3 | 0.00 | 0.00 | 0.00 | 59 | 1024.5 |
| 20260509061510 | 20 | 129 | 3.2 | 11.3 | 0.00 | 0.00 | 0.00 | 59 | 1024.6 |
| 20260509061411 | 20 | 130 | 3.2 | 12.9 | 0.00 | 0.00 | 0.00 | 59 | 1024.6 |
| 20260509061315 | 20 | 122 | 1.6 | 12.9 | 0.00 | 0.00 | 0.00 | 59 | 1024.5 |
| 20260509061209 | 20 | 135 | 1.6 | 12.9 | 0.00 | 0.00 | 0.00 | 59 | 1024.6 |
| 20260509061117 | 20 | 123 | 3.2 | 12.9 | 0.00 | 0.00 | 0.00 | 58 | 1024.5 |
| 20260509061030 | 20 | 126 | 4.8 | 12.9 | 0.00 | 0.00 | 0.00 | 58 | 1024.5 |
| 20260509061008 | 20 | 105 | 3.2 | 12.9 | 0.00 | 0.00 | 0.00 | 58 | 1024.5 |
| 20260509060948 | 20 | 114 | 1.6 | 12.9 | 0.00 | 0.00 | 0.00 | 58 | 1024.4 |
| 20260509060920 | 20 | 144 | 3.2 | 12.9 | 0.00 | 0.00 | 0.00 | 58 | 1024.5 |
| 20260509060611 | 20 | 185 | 4.8 | 12.9 | 0.00 | 0.00 | 0.00 | 58 | 1024.4 |
| 20260509060505 | 20 | 185 | 6.4 | 12.9 | 0.00 | 0.00 | 0.00 | 58 | 1024.4 |
| 20260509060359 | 20 | 104 | 8.0 | 12.9 | 0.00 | 0.00 | 0.00 | 58 | 1024.5 |
| 20260509060305 | 20 | 149 | 6.4 | 12.9 | 0.00 | 0.00 | 0.00 | 57 | 1024.5 |
| 20260509060243 | 20 | 160 | 4.8 | 12.9 | 0.00 | 0.00 | 0.00 | 57 | 1024.4 |
| 20260509060200 | 20 | 109 | 6.4 | 12.9 | 0.00 | 0.00 | 0.00 | 57 | 1024.5 |
| 20260509060138 | 20 | 113 | 3.2 | 11.3 | 0.00 | 0.00 | 0.00 | 57 | 1024.5 |
| 20260509060116 | 20 | 114 | 3.2 | 11.3 | 0.00 | 0.00 | 0.00 | 56 | 1024.4 |
| 20260509060051 | 20 | 83 | 1.6 | 11.3 | 0.00 | 0.00 | 0.00 | 56 | 1024.4 |
| 20260509060030 | 20 | 154 | 1.6 | 11.3 | 0.00 | 0.00 | 0.00 | 55 | 1024.4 |
| 20260509055743 | 20 | 130 | 4.8 | 16.1 | 0.00 | 0.00 | 0.00 | 55 | 1024.4 |
| 20260509055510 | 20 | 108 | 4.8 | 16.1 | 0.00 | 0.00 | 0.00 | 55 | 1024.4 |
| 20260509055446 | 20 | 79 | 3.2 | 16.1 | 0.00 | 0.00 | 0.00 | 55 | 1024.3 |
| 20260509055422 | 20 | 146 | 3.2 | 16.1 | 0.00 | 0.00 | 0.00 | 56 | 1024.4 |
| 20260509055357 | 20 | 110 | 1.6 | 16.1 | 0.00 | 0.00 | 0.00 | 55 | 1024.3 |
| 20260509055037 | 20 | 101 | 0.0 | 16.1 | 0.00 | 0.00 | 0.00 | 55 | 1024.4 |
| 20260509054938 | 20 | 169 | 0.0 | 16.1 | 0.00 | 0.00 | 0.00 | 55 | 1024.4 |
| 20260509054839 | 20 | 121 | 4.8 | 16.1 | 0.00 | 0.00 | 0.00 | 55 | 1024.2 |
| 20260509054742 | 20 | 111 | 4.8 | 16.1 | 0.00 | 0.00 | 0.00 | 55 | 1024.3 |
| 20260509054540 | 20 | 155 | 3.2 | 11.3 | 0.00 | 0.00 | 0.00 | 55 | 1024.3 |
| 20260509054448 | 20 | 154 | 1.6 | 11.3 | 0.00 | 0.00 | 0.00 | 55 | 1024.4 |
| 20260509054341 | 20 | 186 | 1.6 | 11.3 | 0.00 | 0.00 | 0.00 | 55 | 1024.4 |
| 20260509054238 | 20 | 167 | 1.6 | 11.3 | 0.00 | 0.00 | 0.00 | 55 | 1024.3 |
| 20260509054043 | 20 | 193 | 3.2 | 11.3 | 0.00 | 0.00 | 0.00 | 55 | 1024.3 |
| 20260509053941 | 20 | 136 | 4.8 | 11.3 | 0.00 | 0.00 | 0.00 | 55 | 1024.2 |
| 20260509053841 | 20 | 94 | 4.8 | 11.3 | 0.00 | 0.00 | 0.00 | 55 | 1024.3 |
| 20260509053738 | 20 | 170 | 4.8 | 11.3 | 0.00 | 0.00 | 0.00 | 55 | 1024.3 |
| 20260509053538 | 20 | 111 | 3.2 | 12.9 | 0.00 | 0.00 | 0.00 | 55 | 1024.2 |
| 20260509053443 | 20 | 150 | 4.8 | 12.9 | 0.00 | 0.00 | 0.00 | 55 | 1024.2 |
| 20260509053341 | 20 | 116 | 3.2 | 12.9 | 0.00 | 0.00 | 0.00 | 54 | 1024.3 |
| 20260509053241 | 20 | 105 | 3.2 | 12.9 | 0.00 | 0.00 | 0.00 | 55 | 1024.2 |
| 20260509053044 | 20 | 115 | 3.2 | 12.9 | 0.00 | 0.00 | 0.00 | 54 | 1024.3 |
| 20260509052938 | 20 | 122 | 3.2 | 12.9 | 0.00 | 0.00 | 0.00 | 55 | 1024.3 |
| 20260509052838 | 20 | 148 | 4.8 | 12.9 | 0.00 | 0.00 | 0.00 | 55 | 1024.2 |
| 20260509052736 | 20 | 95 | 3.2 | 12.9 | 0.00 | 0.00 | 0.00 | 55 | 1024.2 |
| 20260509052635 | 20 | 142 | 3.2 | 12.9 | 0.00 | 0.00 | 0.00 | 55 | 1024.3 |
| 20260509052539 | 20 | 121 | 6.4 | 14.5 | 0.00 | 0.00 | 0.00 | 55 | 1024.2 |
| 20260509052427 | 20 | 153 | 6.4 | 14.5 | 0.00 | 0.00 | 0.00 | 55 | 1024.2 |
| 20260509052320 | 20 | 175 | 6.4 | 14.5 | 0.00 | 0.00 | 0.00 | 54 | 1024.2 |
| 20260509052216 | 20 | 155 | 6.4 | 14.5 | 0.00 | 0.00 | 0.00 | 54 | 1024.3 |
| 20260509052116 | 20 | 104 | 3.2 | 14.5 | 0.00 | 0.00 | 0.00 | 54 | 1024.2 |
| 20260509052014 | 20 | 178 | 3.2 | 14.5 | 0.00 | 0.00 | 0.00 | 55 | 1024.2 |
| 20260509051915 | 20 | 161 | 9.7 | 14.5 | 0.00 | 0.00 | 0.00 | 54 | 1024.1 |
| 20260509051811 | 20 | 110 | 9.7 | 14.5 | 0.00 | 0.00 | 0.00 | 54 | 1024.2 |
| 20260509051709 | 20 | 112 | 8.0 | 14.5 | 0.00 | 0.00 | 0.00 | 54 | 1024.1 |
| 20260509051613 | 20 | 103 | 6.4 | 14.5 | 0.00 | 0.00 | 0.00 | 54 | 1024.1 |
| 20260509051540 | 20 | 128 | 8.0 | 14.5 | 0.00 | 0.00 | 0.00 | 54 | 1024.2 |
| 20260509051515 | 20 | 164 | 6.4 | 14.5 | 0.00 | 0.00 | 0.00 | 54 | 1024.2 |
| 20260509051451 | 20 | 128 | 6.4 | 14.5 | 0.00 | 0.00 | 0.00 | 54 | 1024.2 |
| 20260509051433 | 20 | 95 | 4.8 | 14.5 | 0.00 | 0.00 | 0.00 | 54 | 1024.1 |
| 20260509051110 | 20 | 146 | 4.8 | 14.5 | 0.00 | 0.00 | 0.00 | 53 | 1024.1 |
| 20260509051011 | 21 | 153 | 4.8 | 14.5 | 0.00 | 0.00 | 0.00 | 53 | 1024.2 |
| 20260509050911 | 21 | 109 | 6.4 | 14.5 | 0.00 | 0.00 | 0.00 | 53 | 1024.1 |
| 20260509050812 | 21 | 117 | 9.7 | 14.5 | 0.00 | 0.00 | 0.00 | 53 | 1024.1 |
| 20260509050709 | 21 | 117 | 6.4 | 14.5 | 0.00 | 0.00 | 0.00 | 52 | 1024.1 |
| 20260509050609 | 21 | 121 | 4.8 | 14.5 | 0.00 | 0.00 | 0.00 | 52 | 1024.1 |
| 20260509050510 | 21 | 104 | 3.2 | 14.5 | 0.00 | 0.00 | 0.00 | 53 | 1024.1 |
| 20260509050409 | 21 | 149 | 3.2 | 14.5 | 0.00 | 0.00 | 0.00 | 52 | 1024.2 |
| 20260509050311 | 21 | 99 | 3.2 | 11.3 | 0.00 | 0.00 | 0.00 | 52 | 1024.1 |
| 20260509050212 | 21 | 157 | 3.2 | 11.3 | 0.00 | 0.00 | 0.00 | 52 | 1024.1 |
| 20260509050111 | 21 | 225 | 1.6 | 11.3 | 0.00 | 0.00 | 0.00 | 52 | 1024.1 |
| 20260509050022 | 21 | 121 | 3.2 | 11.3 | 0.00 | 0.00 | 0.00 | 52 | 1024.1 |
| 20260509045909 | 21 | 172 | 6.4 | 11.3 | 0.00 | 0.00 | 0.00 | 52 | 1024.1 |
| 20260509045814 | 21 | 148 | 4.8 | 11.3 | 0.00 | 0.00 | 0.00 | 53 | 1024.1 |
| 20260509045709 | 21 | 115 | 4.8 | 11.3 | 0.00 | 0.00 | 0.00 | 52 | 1024.1 |
| 20260509045610 | 21 | 128 | 4.8 | 11.3 | 0.00 | 0.00 | 0.00 | 52 | 1024.1 |
| 20260509045517 | 21 | 154 | 3.2 | 11.3 | 0.00 | 0.00 | 0.00 | 52 | 1024.1 |
| 20260509045401 | 21 | 149 | 1.6 | 12.9 | 0.00 | 0.00 | 0.00 | 53 | 1024.1 |
| 20260509045254 | 21 | 177 | 3.2 | 12.9 | 0.00 | 0.00 | 0.00 | 53 | 1024.1 |
| 20260509045155 | 21 | 110 | 3.2 | 12.9 | 0.00 | 0.00 | 0.00 | 52 | 1024.0 |
| 20260509045049 | 21 | 125 | 3.2 | 12.9 | 0.00 | 0.00 | 0.00 | 53 | 1024.0 |
| 20260509044956 | 21 | 120 | 1.6 | 12.9 | 0.00 | 0.00 | 0.00 | 52 | 1024.0 |
| 20260509044935 | 21 | 170 | 1.6 | 12.9 | 0.00 | 0.00 | 0.00 | 53 | 1024.0 |
| 20260509044914 | 21 | 143 | 3.2 | 12.9 | 0.00 | 0.00 | 0.00 | 53 | 1024.1 |
| 20260509044851 | 21 | 134 | 4.8 | 12.9 | 0.00 | 0.00 | 0.00 | 52 | 1024.1 |
| 20260509044545 | 21 | 128 | 3.2 | 12.9 | 0.00 | 0.00 | 0.00 | 52 | 1024.0 |
| 20260509044520 | 21 | 105 | 1.6 | 11.3 | 0.00 | 0.00 | 0.00 | 52 | 1024.1 |
| 20260509044457 | 21 | 104 | 3.2 | 11.3 | 0.00 | 0.00 | 0.00 | 51 | 1024.0 |
| 20260509044437 | 21 | 140 | 3.2 | 11.3 | 0.00 | 0.00 | 0.00 | 51 | 1024.0 |
| 20260509044345 | 21 | 125 | 4.8 | 11.3 | 0.00 | 0.00 | 0.00 | 51 | 1024.0 |
| 20260509044037 | 21 | 150 | 3.2 | 11.3 | 0.00 | 0.00 | 0.00 | 51 | 1024.0 |
| 20260509043938 | 21 | 180 | 1.6 | 11.3 | 0.00 | 0.00 | 0.00 | 52 | 1024.0 |
| 20260509043838 | 21 | 172 | 3.2 | 11.3 | 0.00 | 0.00 | 0.00 | 51 | 1024.0 |
| 20260509043738 | 21 | 209 | 4.8 | 11.3 | 0.00 | 0.00 | 0.00 | 51 | 1024.0 |
| 20260509043638 | 21 | 188 | 4.8 | 11.3 | 0.00 | 0.00 | 0.00 | 51 | 1024.0 |
| 20260509043537 | 21 | 189 | 3.2 | 11.3 | 0.00 | 0.00 | 0.00 | 50 | 1024.1 |
| 20260509043436 | 21 | 204 | 3.2 | 11.3 | 0.00 | 0.00 | 0.00 | 50 | 1024.0 |
| 20260509043336 | 21 | 223 | 4.8 | 11.3 | 0.00 | 0.00 | 0.00 | 50 | 1023.9 |
| 20260509043238 | 21 | 174 | 4.8 | 11.3 | 0.00 | 0.00 | 0.00 | 50 | 1024.0 |
| 20260509043136 | 21 | 101 | 6.4 | 11.3 | 0.00 | 0.00 | 0.00 | 50 | 1024.0 |
| 20260509043037 | 21 | 135 | 4.8 | 12.9 | 0.00 | 0.00 | 0.00 | 49 | 1024.1 |
| 20260509042937 | 21 | 200 | 6.4 | 12.9 | 0.00 | 0.00 | 0.00 | 49 | 1024.0 |
| 20260509042838 | 21 | 205 | 6.4 | 12.9 | 0.00 | 0.00 | 0.00 | 50 | 1024.0 |
| 20260509042737 | 21 | 153 | 6.4 | 12.9 | 0.00 | 0.00 | 0.00 | 50 | 1024.0 |
| 20260509042637 | 21 | 168 | 3.2 | 12.9 | 0.00 | 0.00 | 0.00 | 50 | 1024.0 |
| 20260509042535 | 21 | 184 | 3.2 | 12.9 | 0.00 | 0.00 | 0.00 | 49 | 1023.9 |
| 20260509042433 | 21 | 125 | 6.4 | 12.9 | 0.00 | 0.00 | 0.00 | 49 | 1024.0 |
| 20260509042327 | 21 | 107 | 8.0 | 12.9 | 0.00 | 0.00 | 0.00 | 48 | 1024.0 |
| 20260509042227 | 21 | 91 | 4.8 | 12.9 | 0.00 | 0.00 | 0.00 | 49 | 1023.9 |
| 20260509042124 | 21 | 109 | 1.6 | 11.3 | 0.00 | 0.00 | 0.00 | 50 | 1024.0 |
| 20260509042019 | 21 | 107 | 3.2 | 11.3 | 0.00 | 0.00 | 0.00 | 51 | 1024.0 |
| 20260509041916 | 21 | 148 | 3.2 | 11.3 | 0.00 | 0.00 | 0.00 | 51 | 1024.1 |
| 20260509041816 | 21 | 121 | 3.2 | 11.3 | 0.00 | 0.00 | 0.00 | 50 | 1024.1 |
| 20260509041713 | 21 | 190 | 1.6 | 11.3 | 0.00 | 0.00 | 0.00 | 49 | 1024.1 |
| 20260509041510 | 21 | 157 | 0.0 | 11.3 | 0.00 | 0.00 | 0.00 | 49 | 1024.0 |
| 20260509041410 | 21 | 117 | 3.2 | 11.3 | 0.00 | 0.00 | 0.00 | 49 | 1024.2 |
| 20260509041310 | 21 | 117 | 4.8 | 12.9 | 0.00 | 0.00 | 0.00 | 49 | 1024.2 |
| 20260509041209 | 21 | 126 | 3.2 | 14.5 | 0.00 | 0.00 | 0.00 | 49 | 1023.9 |
| 20260509041148 | 21 | 132 | 3.2 | 14.5 | 0.00 | 0.00 | 0.00 | 50 | 1024.1 |
| 20260509041010 | 21 | 162 | 4.8 | 14.5 | 0.00 | 0.00 | 0.00 | 50 | 1024.0 |
| 20260509040909 | 21 | 163 | 4.8 | 14.5 | 0.00 | 0.00 | 0.00 | 50 | 1024.1 |
| 20260509040811 | 21 | 170 | 4.8 | 14.5 | 0.00 | 0.00 | 0.00 | 50 | 1024.0 |
| 20260509040709 | 21 | 171 | 3.2 | 14.5 | 0.00 | 0.00 | 0.00 | 49 | 1024.0 |
| 20260509040617 | 21 | 93 | 6.4 | 14.5 | 0.00 | 0.00 | 0.00 | 49 | 1024.1 |
| 20260509040508 | 21 | 82 | 8.0 | 14.5 | 0.00 | 0.00 | 0.00 | 49 | 1024.0 |
| 20260509040410 | 21 | 65 | 6.4 | 14.5 | 0.00 | 0.00 | 0.00 | 49 | 1024.1 |
| 20260509040309 | 21 | 109 | 3.2 | 14.5 | 0.00 | 0.00 | 0.00 | 49 | 1024.0 |
| 20260509040208 | 21 | 76 | 4.8 | 12.9 | 0.00 | 0.00 | 0.00 | 50 | 1024.0 |
| 20260509040119 | 21 | 101 | 4.8 | 12.9 | 0.00 | 0.00 | 0.00 | 50 | 1024.0 |
| 20260509040009 | 21 | 47 | 4.8 | 12.9 | 0.00 | 0.00 | 0.00 | 50 | 1024.0 |
| 20260509035910 | 21 | 98 | 3.2 | 12.9 | 0.00 | 0.00 | 0.00 | 50 | 1024.0 |
| 20260509035814 | 21 | 87 | 3.2 | 12.9 | 0.00 | 0.00 | 0.00 | 50 | 1024.1 |
| 20260509035710 | 21 | 59 | 6.4 | 12.9 | 0.00 | 0.00 | 0.00 | 51 | 1024.0 |
| 20260509035616 | 21 | 64 | 6.4 | 12.9 | 0.00 | 0.00 | 0.00 | 50 | 1024.0 |
| 20260509035511 | 21 | 107 | 4.8 | 12.9 | 0.00 | 0.00 | 0.00 | 50 | 1023.9 |
| 20260509035409 | 21 | 100 | 6.4 | 12.9 | 0.00 | 0.00 | 0.00 | 50 | 1024.0 |
| 20260509035309 | 21 | 114 | 4.8 | 12.9 | 0.00 | 0.00 | 0.00 | 50 | 1024.1 |
| 20260509035210 | 21 | 126 | 6.4 | 12.9 | 0.00 | 0.00 | 0.00 | 50 | 1024.0 |
| 20260509035113 | 21 | 132 | 8.0 | 12.9 | 0.00 | 0.00 | 0.00 | 50 | 1024.0 |
| 20260509035010 | 21 | 156 | 6.4 | 12.9 | 0.00 | 0.00 | 0.00 | 50 | 1024.1 |
| 20260509034909 | 21 | 153 | 4.8 | 12.9 | 0.00 | 0.00 | 0.00 | 50 | 1024.0 |
| 20260509034811 | 21 | 80 | 1.6 | 9.7 | 0.00 | 0.00 | 0.00 | 50 | 1024.0 |
| 20260509034709 | 21 | 105 | 0.0 | 9.7 | 0.00 | 0.00 | 0.00 | 50 | 1024.0 |
| 20260509034613 | 21 | 173 | 0.0 | 11.3 | 0.00 | 0.00 | 0.00 | 50 | 1023.9 |
| 20260509034513 | 21 | 184 | 1.6 | 11.3 | 0.00 | 0.00 | 0.00 | 50 | 1023.9 |
| 20260509034444 | 21 | 184 | 3.2 | 14.5 | 0.00 | 0.00 | 0.00 | 50 | 1024.0 |
| 20260509034425 | 21 | 185 | 4.8 | 14.5 | 0.00 | 0.00 | 0.00 | 50 | 1024.0 |
| 20260509034406 | 21 | 178 | 4.8 | 14.5 | 0.00 | 0.00 | 0.00 | 50 | 1024.0 |
| 20260509034342 | 21 | 156 | 3.2 | 14.5 | 0.00 | 0.00 | 0.00 | 51 | 1024.1 |
| 20260509034009 | 21 | 172 | 3.2 | 14.5 | 0.00 | 0.00 | 0.00 | 50 | 1024.0 |
| 20260509033910 | 21 | 122 | 4.8 | 14.5 | 0.00 | 0.00 | 0.00 | 50 | 1024.1 |
| 20260509033812 | 21 | 98 | 4.8 | 16.1 | 0.00 | 0.00 | 0.00 | 49 | 1024.1 |
| 20260509033709 | 21 | 110 | 8.0 | 16.1 | 0.00 | 0.00 | 0.00 | 50 | 1024.1 |
| 20260509033612 | 21 | 103 | 9.7 | 16.1 | 0.00 | 0.00 | 0.00 | 49 | 1024.1 |
| 20260509033509 | 21 | 100 | 6.4 | 16.1 | 0.00 | 0.00 | 0.00 | 50 | 1024.1 |
| 20260509033418 | 21 | 111 | 3.2 | 16.1 | 0.00 | 0.00 | 0.00 | 50 | 1024.1 |
| 20260509033309 | 21 | 126 | 3.2 | 16.1 | 0.00 | 0.00 | 0.00 | 50 | 1024.0 |
| 20260509033210 | 21 | 105 | 3.2 | 16.1 | 0.00 | 0.00 | 0.00 | 50 | 1024.1 |
| 20260509033110 | 21 | 103 | 4.8 | 16.1 | 0.00 | 0.00 | 0.00 | 50 | 1024.2 |
| 20260509033009 | 21 | 188 | 8.0 | 16.1 | 0.00 | 0.00 | 0.00 | 49 | 1024.1 |
| 20260509032927 | 21 | 190 | 6.4 | 16.1 | 0.00 | 0.00 | 0.00 | 50 | 1024.2 |
| 20260509032859 | 21 | 147 | 6.4 | 12.9 | 0.00 | 0.00 | 0.00 | 50 | 1024.1 |
| 20260509032839 | 21 | 103 | 4.8 | 11.3 | 0.00 | 0.00 | 0.00 | 49 | 1024.1 |
| 20260509032819 | 21 | 92 | 4.8 | 11.3 | 0.00 | 0.00 | 0.00 | 49 | 1024.2 |
| 20260509032508 | 21 | 123 | 3.2 | 11.3 | 0.00 | 0.00 | 0.00 | 49 | 1024.2 |
| 20260509032415 | 21 | 112 | 1.6 | 11.3 | 0.00 | 0.00 | 0.00 | 50 | 1024.2 |
| 20260509032310 | 21 | 113 | 0.0 | 11.3 | 0.00 | 0.00 | 0.00 | 50 | 1024.3 |
| 20260509032212 | 21 | 145 | 0.0 | 11.3 | 0.00 | 0.00 | 0.00 | 49 | 1024.2 |
| 20260509032112 | 21 | 202 | 3.2 | 11.3 | 0.00 | 0.00 | 0.00 | 49 | 1024.2 |
| 20260509032011 | 21 | 202 | 3.2 | 11.3 | 0.00 | 0.00 | 0.00 | 49 | 1024.2 |
| 20260509031911 | 22 | 212 | 3.2 | 11.3 | 0.00 | 0.00 | 0.00 | 47 | 1024.3 |
| 20260509031804 | 22 | 198 | 6.4 | 11.3 | 0.00 | 0.00 | 0.00 | 46 | 1024.3 |
| 20260509031702 | 22 | 217 | 6.4 | 11.3 | 0.00 | 0.00 | 0.00 | 45 | 1024.4 |
| 20260509031557 | 22 | 200 | 3.2 | 9.7 | 0.00 | 0.00 | 0.00 | 45 | 1024.3 |
| 20260509031450 | 22 | 162 | 1.6 | 8.0 | 0.00 | 0.00 | 0.00 | 46 | 1024.3 |
| 20260509031349 | 22 | 151 | 1.6 | 8.0 | 0.00 | 0.00 | 0.00 | 46 | 1024.3 |
| 20260509031240 | 21 | 57 | 0.0 | 8.0 | 0.00 | 0.00 | 0.00 | 45 | 1024.2 |
| 20260509031139 | 21 | 103 | 0.0 | 8.0 | 0.00 | 0.00 | 0.00 | 46 | 1024.3 |
| 20260509031059 | 21 | 242 | 0.0 | 8.0 | 0.00 | 0.00 | 0.00 | 47 | 1024.1 |
| 20260509030939 | 21 | 214 | 0.0 | 9.7 | 0.00 | 0.00 | 0.00 | 47 | 1024.3 |
| 20260509030837 | 21 | 213 | 0.0 | 9.7 | 0.00 | 0.00 | 0.00 | 47 | 1024.3 |
| 20260509030740 | 21 | 213 | 1.6 | 9.7 | 0.00 | 0.00 | 0.00 | 47 | 1024.3 |
| 20260509030643 | 21 | 213 | 3.2 | 9.7 | 0.00 | 0.00 | 0.00 | 47 | 1024.3 |
| 20260509030538 | 21 | 210 | 3.2 | 9.7 | 0.00 | 0.00 | 0.00 | 47 | 1024.3 |
| 20260509030438 | 21 | 180 | 3.2 | 9.7 | 0.00 | 0.00 | 0.00 | 49 | 1024.3 |
| 20260509030338 | 21 | 120 | 3.2 | 9.7 | 0.00 | 0.00 | 0.00 | 47 | 1024.2 |
| 20260509030239 | 21 | 107 | 3.2 | 9.7 | 0.00 | 0.00 | 0.00 | 47 | 1024.4 |
| 20260509030139 | 21 | 104 | 4.8 | 9.7 | 0.00 | 0.00 | 0.00 | 47 | 1024.4 |
| 20260509030041 | 21 | 103 | 3.2 | 9.7 | 0.00 | 0.00 | 0.00 | 48 | 1024.3 |
| 20260509025938 | 21 | 122 | 1.6 | 6.4 | 0.00 | 0.00 | 0.00 | 48 | 1024.4 |
| 20260509025837 | 21 | 150 | 1.6 | 6.4 | 0.00 | 0.00 | 0.00 | 47 | 1024.3 |
| 20260509025738 | 21 | 150 | 1.6 | 6.4 | 0.00 | 0.00 | 0.00 | 47 | 1024.4 |
| 20260509025638 | 21 | 153 | 3.2 | 8.0 | 0.00 | 0.00 | 0.00 | 47 | 1024.4 |
| 20260509025537 | 21 | 163 | 1.6 | 8.0 | 0.00 | 0.00 | 0.00 | 47 | 1024.4 |
| 20260509025438 | 21 | 94 | 1.6 | 8.0 | 0.00 | 0.00 | 0.00 | 47 | 1024.4 |
| 20260509025338 | 21 | 352 | 1.6 | 8.0 | 0.00 | 0.00 | 0.00 | 47 | 1024.4 |
| 20260509025237 | 21 | 335 | 0.0 | 8.0 | 0.00 | 0.00 | 0.00 | 47 | 1024.4 |
| 20260509025138 | 21 | 182 | 3.2 | 11.3 | 0.00 | 0.00 | 0.00 | 47 | 1024.4 |
| 20260509025038 | 21 | 182 | 3.2 | 11.3 | 0.00 | 0.00 | 0.00 | 48 | 1024.5 |
| 20260509024944 | 21 | 188 | 1.6 | 11.3 | 0.00 | 0.00 | 0.00 | 48 | 1024.5 |
| 20260509024910 | 21 | 238 | 4.8 | 11.3 | 0.00 | 0.00 | 0.00 | 49 | 1024.5 |
| 20260509024833 | 21 | 219 | 4.8 | 11.3 | 0.00 | 0.00 | 0.00 | 48 | 1024.5 |
| 20260509024810 | 21 | 194 | 1.6 | 11.3 | 0.00 | 0.00 | 0.00 | 48 | 1024.6 |
| 20260509024527 | 21 | 111 | 0.0 | 11.3 | 0.00 | 0.00 | 0.00 | 47 | 1024.6 |
| 20260509024424 | 21 | 159 | 4.8 | 11.3 | 0.00 | 0.00 | 0.00 | 48 | 1024.5 |
| 20260509024315 | 21 | 162 | 3.2 | 11.3 | 0.00 | 0.00 | 0.00 | 49 | 1024.6 |
| 20260509024215 | 21 | 116 | 1.6 | 11.3 | 0.00 | 0.00 | 0.00 | 49 | 1024.6 |
| 20260509024117 | 21 | 62 | 1.6 | 4.8 | 0.00 | 0.00 | 0.00 | 48 | 1024.6 |
| 20260509024040 | 21 | 62 | 1.6 | 8.0 | 0.00 | 0.00 | 0.00 | 48 | 1024.7 |
| 20260509023910 | 21 | 86 | 0.0 | 9.7 | 0.00 | 0.00 | 0.00 | 50 | 1024.7 |
| 20260509023816 | 21 | 5 | 1.6 | 14.5 | 0.00 | 0.00 | 0.00 | 49 | 1024.7 |
| 20260509023711 | 21 | 5 | 1.6 | 14.5 | 0.00 | 0.00 | 0.00 | 48 | 1024.7 |
| 20260509023610 | 21 | 32 | 1.6 | 14.5 | 0.00 | 0.00 | 0.00 | 48 | 1024.8 |
| 20260509023510 | 21 | 125 | 0.0 | 14.5 | 0.00 | 0.00 | 0.00 | 48 | 1024.6 |
| 20260509023409 | 21 | 94 | 0.0 | 14.5 | 0.00 | 0.00 | 0.00 | 49 | 1024.7 |
| 20260509023310 | 21 | 162 | 3.2 | 14.5 | 0.00 | 0.00 | 0.00 | 48 | 1024.7 |
| 20260509023211 | 21 | 162 | 6.4 | 14.5 | 0.00 | 0.00 | 0.00 | 48 | 1024.8 |
| 20260509023109 | 21 | 161 | 6.4 | 14.5 | 0.00 | 0.00 | 0.00 | 48 | 1024.8 |
| 20260509023010 | 21 | 200 | 4.8 | 14.5 | 0.00 | 0.00 | 0.00 | 49 | 1024.8 |
| 20260509022910 | 21 | 152 | 1.6 | 14.5 | 0.00 | 0.00 | 0.00 | 49 | 1024.8 |
| 20260509022813 | 21 | 158 | 1.6 | 8.0 | 0.00 | 0.00 | 0.00 | 48 | 1024.9 |
| 20260509022708 | 21 | 146 | 0.0 | 8.0 | 0.00 | 0.00 | 0.00 | 48 | 1024.9 |
| 20260509022608 | 21 | 227 | 0.0 | 8.0 | 0.00 | 0.00 | 0.00 | 49 | 1024.9 |
| 20260509022509 | 21 | 65 | 1.6 | 8.0 | 0.00 | 0.00 | 0.00 | 49 | 1024.8 |
| 20260509022411 | 21 | 289 | 3.2 | 8.0 | 0.00 | 0.00 | 0.00 | 50 | 1024.9 |
| 20260509022341 | 21 | 254 | 3.2 | 8.0 | 0.00 | 0.00 | 0.00 | 50 | 1024.8 |
| 20260509022323 | 21 | 250 | 3.2 | 8.0 | 0.00 | 0.00 | 0.00 | 50 | 1024.9 |
| 20260509022301 | 21 | 169 | 3.2 | 9.7 | 0.00 | 0.00 | 0.00 | 49 | 1025.0 |
| 20260509021959 | 21 | 188 | 1.6 | 9.7 | 0.00 | 0.00 | 0.00 | 50 | 1024.9 |
| 20260509021859 | 21 | 221 | 1.6 | 9.7 | 0.00 | 0.00 | 0.00 | 49 | 1024.9 |
| 20260509021755 | 21 | 262 | 3.2 | 9.7 | 0.00 | 0.00 | 0.00 | 50 | 1025.0 |
| 20260509021653 | 20 | 231 | 3.2 | 9.7 | 0.00 | 0.00 | 0.00 | 51 | 1024.9 |
| 20260509021552 | 20 | 279 | 0.0 | 9.7 | 0.00 | 0.00 | 0.00 | 52 | 1024.9 |
| 20260509021450 | 20 | 186 | 0.0 | 9.7 | 0.00 | 0.00 | 0.00 | 51 | 1025.0 |
| 20260509021346 | 20 | 155 | 1.6 | 9.7 | 0.00 | 0.00 | 0.00 | 51 | 1025.0 |
| 20260509021242 | 20 | 165 | 3.2 | 9.7 | 0.00 | 0.00 | 0.00 | 51 | 1025.1 |
| 20260509021138 | 20 | 200 | 3.2 | 9.7 | 0.00 | 0.00 | 0.00 | 50 | 1025.0 |
| 20260509021058 | 20 | 196 | 3.2 | 9.7 | 0.00 | 0.00 | 0.00 | 50 | 1025.1 |
| 20260509020938 | 20 | 177 | 4.8 | 9.7 | 0.00 | 0.00 | 0.00 | 50 | 1025.0 |
| 20260509020840 | 20 | 192 | 6.4 | 9.7 | 0.00 | 0.00 | 0.00 | 50 | 1025.0 |
| 20260509020739 | 20 | 195 | 4.8 | 9.7 | 0.00 | 0.00 | 0.00 | 50 | 1025.2 |
| 20260509020639 | 20 | 194 | 3.2 | 9.7 | 0.00 | 0.00 | 0.00 | 51 | 1025.1 |
| 20260509020437 | 20 | 258 | 1.6 | 9.7 | 0.00 | 0.00 | 0.00 | 51 | 1025.1 |
| 20260509020337 | 20 | 243 | 4.8 | 9.7 | 0.00 | 0.00 | 0.00 | 51 | 1025.1 |
| 20260509020238 | 20 | 172 | 4.8 | 9.7 | 0.00 | 0.00 | 0.00 | 49 | 1025.1 |
| 20260509020138 | 20 | 191 | 3.2 | 9.7 | 0.00 | 0.00 | 0.00 | 50 | 1025.2 |
| 20260509015942 | 20 | 203 | 1.6 | 12.9 | 0.00 | 0.00 | 0.00 | 52 | 1025.3 |
| 20260509015916 | 20 | 277 | 3.2 | 14.5 | 0.00 | 0.00 | 0.00 | 52 | 1025.3 |
| 20260509015844 | 20 | 276 | 4.8 | 14.5 | 0.00 | 0.00 | 0.00 | 53 | 1025.2 |
| 20260509015823 | 20 | 250 | 4.8 | 14.5 | 0.00 | 0.00 | 0.00 | 51 | 1025.3 |
| 20260509015753 | 20 | 213 | 3.2 | 14.5 | 0.00 | 0.00 | 0.00 | 52 | 1025.2 |
| 20260509015439 | 20 | 225 | 3.2 | 14.5 | 0.00 | 0.00 | 0.00 | 53 | 1025.3 |
| 20260509015337 | 20 | 200 | 6.4 | 14.5 | 0.00 | 0.00 | 0.00 | 53 | 1025.3 |
| 20260509015238 | 20 | 231 | 6.4 | 14.5 | 0.00 | 0.00 | 0.00 | 51 | 1025.3 |
| 20260509015137 | 20 | 229 | 8.0 | 14.5 | 0.00 | 0.00 | 0.00 | 49 | 1025.3 |
| 20260509014940 | 20 | 192 | 8.0 | 14.5 | 0.00 | 0.00 | 0.00 | 50 | 1025.4 |
| 20260509014840 | 20 | 194 | 4.8 | 9.7 | 0.00 | 0.00 | 0.00 | 51 | 1025.4 |
| 20260509014737 | 20 | 189 | 3.2 | 9.7 | 0.00 | 0.00 | 0.00 | 52 | 1025.3 |
| 20260509014637 | 20 | 223 | 4.8 | 9.7 | 0.00 | 0.00 | 0.00 | 52 | 1025.4 |
| 20260509014548 | 20 | 155 | 6.4 | 12.9 | 0.00 | 0.00 | 0.00 | 52 | 1025.4 |
| 20260509014439 | 20 | 174 | 6.4 | 12.9 | 0.00 | 0.00 | 0.00 | 52 | 1025.4 |
| 20260509014337 | 20 | 150 | 4.8 | 12.9 | 0.00 | 0.00 | 0.00 | 53 | 1025.4 |
| 20260509014237 | 20 | 169 | 4.8 | 12.9 | 0.00 | 0.00 | 0.00 | 52 | 1025.4 |
| 20260509014138 | 20 | 188 | 3.2 | 12.9 | 0.00 | 0.00 | 0.00 | 52 | 1025.5 |
| 20260509013941 | 20 | 147 | 1.6 | 12.9 | 0.00 | 0.00 | 0.00 | 53 | 1025.5 |
| 20260509013911 | 20 | 54 | 3.2 | 12.9 | 0.00 | 0.00 | 0.00 | 53 | 1025.5 |
| 20260509013839 | 20 | 232 | 6.4 | 12.9 | 0.00 | 0.00 | 0.00 | 53 | 1025.5 |
| 20260509013818 | 19 | 148 | 4.8 | 12.9 | 0.00 | 0.00 | 0.00 | 53 | 1025.6 |
| 20260509013753 | 20 | 196 | 3.2 | 12.9 | 0.00 | 0.00 | 0.00 | 53 | 1025.6 |
| 20260509013437 | 20 | 303 | 4.8 | 12.9 | 0.00 | 0.00 | 0.00 | 53 | 1025.5 |
| 20260509013339 | 20 | 294 | 6.4 | 12.9 | 0.00 | 0.00 | 0.00 | 53 | 1025.5 |
| 20260509013237 | 20 | 286 | 4.8 | 12.9 | 0.00 | 0.00 | 0.00 | 53 | 1025.6 |
| 20260509013138 | 20 | 276 | 3.2 | 9.7 | 0.00 | 0.00 | 0.00 | 53 | 1025.5 |
| 20260509013047 | 20 | 205 | 3.2 | 9.7 | 0.00 | 0.00 | 0.00 | 53 | 1025.6 |
| 20260509012937 | 20 | 282 | 3.2 | 9.7 | 0.00 | 0.00 | 0.00 | 54 | 1025.5 |
| 20260509012837 | 20 | 238 | 4.8 | 9.7 | 0.00 | 0.00 | 0.00 | 53 | 1025.6 |
| 20260509012737 | 20 | 222 | 4.8 | 9.7 | 0.00 | 0.00 | 0.00 | 53 | 1025.5 |
| 20260509012639 | 20 | 202 | 1.6 | 9.7 | 0.00 | 0.00 | 0.00 | 53 | 1025.6 |
| 20260509012547 | 20 | 196 | 3.2 | 9.7 | 0.00 | 0.00 | 0.00 | 53 | 1025.6 |
| 20260509012436 | 20 | 167 | 3.2 | 9.7 | 0.00 | 0.00 | 0.00 | 53 | 1025.6 |
| 20260509012336 | 20 | 163 | 1.6 | 9.7 | 0.00 | 0.00 | 0.00 | 54 | 1025.6 |
| 20260509012243 | 19 | 155 | 3.2 | 11.3 | 0.00 | 0.00 | 0.00 | 55 | 1025.6 |
| 20260509012138 | 19 | 171 | 4.8 | 11.3 | 0.00 | 0.00 | 0.00 | 55 | 1025.6 |
| 20260509011937 | 19 | 155 | 6.4 | 11.3 | 0.00 | 0.00 | 0.00 | 54 | 1025.6 |
| 20260509011837 | 19 | 189 | 3.2 | 11.3 | 0.00 | 0.00 | 0.00 | 54 | 1025.6 |
| 20260509011743 | 19 | 191 | 3.2 | 11.3 | 0.00 | 0.00 | 0.00 | 53 | 1025.5 |
| 20260509011640 | 19 | 175 | 4.8 | 11.3 | 0.00 | 0.00 | 0.00 | 52 | 1025.6 |
| 20260509011559 | 19 | 195 | 6.4 | 11.3 | 0.00 | 0.00 | 0.00 | 52 | 1025.7 |
| 20260509011437 | 20 | 193 | 4.8 | 11.3 | 0.00 | 0.00 | 0.00 | 53 | 1025.5 |
| 20260509011337 | 20 | 225 | 1.6 | 11.3 | 0.00 | 0.00 | 0.00 | 54 | 1025.6 |
| 20260509011242 | 19 | 255 | 1.6 | 9.7 | 0.00 | 0.00 | 0.00 | 55 | 1025.6 |
| 20260509011137 | 19 | 253 | 1.6 | 9.7 | 0.00 | 0.00 | 0.00 | 54 | 1025.5 |
| 20260509010937 | 19 | 193 | 4.8 | 9.7 | 0.00 | 0.00 | 0.00 | 54 | 1025.5 |
| 20260509010839 | 19 | 192 | 3.2 | 9.7 | 0.00 | 0.00 | 0.00 | 55 | 1025.5 |
| 20260509010739 | 19 | 197 | 3.2 | 8.0 | 0.00 | 0.00 | 0.00 | 55 | 1025.5 |
| 20260509010637 | 19 | 246 | 1.6 | 8.0 | 0.00 | 0.00 | 0.00 | 55 | 1025.5 |
| 20260509010542 | 19 | 194 | 1.6 | 8.0 | 0.00 | 0.00 | 0.00 | 55 | 1025.5 |
| 20260509010436 | 19 | 240 | 3.2 | 8.0 | 0.00 | 0.00 | 0.00 | 56 | 1025.4 |
| 20260509010338 | 19 | 219 | 6.4 | 8.0 | 0.00 | 0.00 | 0.00 | 55 | 1025.5 |
| 20260509010238 | 19 | 198 | 3.2 | 9.7 | 0.00 | 0.00 | 0.00 | 55 | 1025.4 |
| 20260509010138 | 19 | 254 | 3.2 | 9.7 | 0.00 | 0.00 | 0.00 | 57 | 1025.4 |
| 20260509010040 | 19 | 228 | 4.8 | 9.7 | 0.00 | 0.00 | 0.00 | 55 | 1025.4 |
| 20260509005937 | 19 | 234 | 3.2 | 9.7 | 0.00 | 0.00 | 0.00 | 56 | 1025.4 |
| 20260509005837 | 19 | 240 | 1.6 | 9.7 | 0.00 | 0.00 | 0.00 | 56 | 1025.5 |
| 20260509005737 | 19 | 229 | 1.6 | 9.7 | 0.00 | 0.00 | 0.00 | 57 | 1025.7 |
| 20260509005637 | 19 | 219 | 0.0 | 9.7 | 0.00 | 0.00 | 0.00 | 57 | 1025.7 |
| 20260509005537 | 19 | 219 | 1.6 | 9.7 | 0.00 | 0.00 | 0.00 | 56 | 1025.8 |
| 20260509005440 | 19 | 219 | 3.2 | 9.7 | 0.00 | 0.00 | 0.00 | 56 | 1025.8 |
| 20260509005337 | 19 | 209 | 3.2 | 9.7 | 0.00 | 0.00 | 0.00 | 56 | 1025.8 |
| 20260509005237 | 19 | 213 | 3.2 | 9.7 | 0.00 | 0.00 | 0.00 | 57 | 1025.8 |
| 20260509005139 | 18 | 263 | 4.8 | 9.7 | 0.00 | 0.00 | 0.00 | 58 | 1025.9 |
| 20260509005038 | 18 | 238 | 3.2 | 9.7 | 0.00 | 0.00 | 0.00 | 57 | 1025.9 |
| 20260509004936 | 18 | 252 | 3.2 | 9.7 | 0.00 | 0.00 | 0.00 | 57 | 1025.9 |
| 20260509004832 | 18 | 272 | 3.2 | 9.7 | 0.00 | 0.00 | 0.00 | 57 | 1025.9 |
| 20260509004727 | 18 | 288 | 3.2 | 9.7 | 0.00 | 0.00 | 0.00 | 56 | 1026.0 |
| 20260509004626 | 18 | 288 | 3.2 | 9.7 | 0.00 | 0.00 | 0.00 | 57 | 1025.9 |
| 20260509004526 | 18 | 257 | 4.8 | 9.7 | 0.00 | 0.00 | 0.00 | 57 | 1025.9 |
| 20260509004419 | 18 | 223 | 4.8 | 9.7 | 0.00 | 0.00 | 0.00 | 58 | 1025.9 |
| 20260509004319 | 18 | 257 | 4.8 | 8.0 | 0.00 | 0.00 | 0.00 | 57 | 1025.9 |
| 20260509004224 | 18 | 244 | 1.6 | 8.0 | 0.00 | 0.00 | 0.00 | 57 | 1025.9 |
| 20260509004115 | 18 | 179 | 4.8 | 8.0 | 0.00 | 0.00 | 0.00 | 56 | 1025.9 |
| 20260509003911 | 18 | 245 | 3.2 | 8.0 | 0.00 | 0.00 | 0.00 | 59 | 1025.9 |
| 20260509003816 | 18 | 268 | 3.2 | 8.0 | 0.00 | 0.00 | 0.00 | 58 | 1025.9 |
| 20260509003710 | 18 | 234 | 4.8 | 8.0 | 0.00 | 0.00 | 0.00 | 58 | 1025.8 |
| 20260509003609 | 18 | 209 | 4.8 | 8.0 | 0.00 | 0.00 | 0.00 | 57 | 1025.9 |
| 20260509003410 | 18 | 198 | 4.8 | 9.7 | 0.00 | 0.00 | 0.00 | 57 | 1025.9 |
| 20260509003337 | 18 | 231 | 4.8 | 9.7 | 0.00 | 0.00 | 0.00 | 58 | 1026.0 |
| 20260509003313 | 18 | 227 | 3.2 | 9.7 | 0.00 | 0.00 | 0.00 | 59 | 1026.0 |
| 20260509003246 | 18 | 251 | 3.2 | 9.7 | 0.00 | 0.00 | 0.00 | 58 | 1025.9 |
| 20260509003223 | 18 | 278 | 3.2 | 9.7 | 0.00 | 0.00 | 0.00 | 58 | 1025.9 |
| 20260509002911 | 18 | 222 | 4.8 | 9.7 | 0.00 | 0.00 | 0.00 | 58 | 1025.8 |
| 20260509002813 | 18 | 248 | 3.2 | 9.7 | 0.00 | 0.00 | 0.00 | 58 | 1025.8 |
| 20260509002713 | 18 | 231 | 3.2 | 11.3 | 0.00 | 0.00 | 0.00 | 59 | 1025.8 |
| 20260509002611 | 18 | 221 | 1.6 | 11.3 | 0.00 | 0.00 | 0.00 | 60 | 1025.8 |
| 20260509002408 | 18 | 246 | 1.6 | 11.3 | 0.00 | 0.00 | 0.00 | 60 | 1025.9 |
| 20260509002309 | 18 | 210 | 1.6 | 11.3 | 0.00 | 0.00 | 0.00 | 59 | 1025.8 |
| 20260509002244 | 18 | 259 | 3.2 | 11.3 | 0.00 | 0.00 | 0.00 | 59 | 1026.0 |
| 20260509002214 | 18 | 267 | 4.8 | 11.3 | 0.00 | 0.00 | 0.00 | 60 | 1025.9 |
| 20260509002115 | 18 | 236 | 4.8 | 11.3 | 0.00 | 0.00 | 0.00 | 60 | 1025.8 |
| 20260509001840 | 18 | 274 | 3.2 | 11.3 | 0.00 | 0.00 | 0.00 | 60 | 1025.9 |
| 20260509001815 | 18 | 257 | 3.2 | 11.3 | 0.00 | 0.00 | 0.00 | 60 | 1025.9 |
| 20260509001748 | 17 | 275 | 3.2 | 11.3 | 0.00 | 0.00 | 0.00 | 60 | 1025.9 |
| 20260509001723 | 17 | 192 | 3.2 | 11.3 | 0.00 | 0.00 | 0.00 | 60 | 1025.8 |
| 20260509001409 | 17 | 198 | 1.6 | 11.3 | 0.00 | 0.00 | 0.00 | 61 | 1025.9 |
| 20260509001308 | 17 | 261 | 0.0 | 11.3 | 0.00 | 0.00 | 0.00 | 60 | 1025.8 |
| 20260509001215 | 17 | 289 | 1.6 | 11.3 | 0.00 | 0.00 | 0.00 | 60 | 1025.9 |
| 20260509001110 | 17 | 217 | 4.8 | 11.3 | 0.00 | 0.00 | 0.00 | 60 | 1025.8 |
| 20260509000938 | 17 | 263 | 4.8 | 11.3 | 0.00 | 0.00 | 0.00 | 61 | 1025.8 |
| 20260509000849 | 17 | 294 | 4.8 | 9.7 | 0.00 | 0.00 | 0.00 | 61 | 1025.9 |
| 20260509000824 | 17 | 259 | 3.2 | 9.7 | 0.00 | 0.00 | 0.00 | 61 | 1025.8 |
| 20260509000800 | 17 | 262 | 1.6 | 9.7 | 0.00 | 0.00 | 0.00 | 61 | 1025.9 |
| 20260509000734 | 17 | 223 | 3.2 | 4.8 | 0.00 | 0.00 | 0.00 | 61 | 1025.8 |
| 20260509000410 | 17 | 229 | 1.6 | 4.8 | 0.00 | 0.00 | 0.00 | 62 | 1025.8 |
| 20260509000311 | 17 | 231 | 1.6 | 4.8 | 0.00 | 0.00 | 0.00 | 62 | 1025.9 |
| 20260509000211 | 17 | 240 | 1.6 | 4.8 | 0.00 | 0.00 | 0.00 | 62 | 1025.7 |
| 20260509000110 | 17 | 175 | 1.6 | 4.8 | 0.00 | 0.00 | 0.00 | 62 | 1025.8 |
| 20260508235912 | 17 | 300 | 1.6 | 6.4 | 0.00 | 0.00 | 0.00 | 63 | 1025.8 |
| 20260508235845 | 17 | 259 | 3.2 | 8.0 | 0.00 | 0.00 | 0.00 | 63 | 1025.9 |
| 20260508235819 | 17 | 233 | 1.6 | 11.3 | 0.00 | 0.00 | 0.00 | 62 | 1025.8 |
| 20260508235752 | 17 | 207 | 1.6 | 14.5 | 0.00 | 0.00 | 0.00 | 63 | 1025.8 |
| 20260508235725 | 17 | 274 | 1.6 | 14.5 | 0.00 | 0.00 | 0.00 | 62 | 1025.9 |
| 20260508235410 | 17 | 280 | 3.2 | 14.5 | 0.00 | 0.00 | 0.00 | 62 | 1026.0 |
| 20260508235309 | 17 | 279 | 3.2 | 14.5 | 0.00 | 0.00 | 0.00 | 63 | 1026.0 |
| 20260508235209 | 17 | 255 | 4.8 | 14.5 | 0.00 | 0.00 | 0.00 | 64 | 1026.0 |
| 20260508235105 | 17 | 258 | 3.2 | 14.5 | 0.00 | 0.00 | 0.00 | 64 | 1026.0 |
| 20260508235000 | 16 | 246 | 4.8 | 14.5 | 0.00 | 0.00 | 0.00 | 64 | 1026.0 |
| 20260508234901 | 16 | 294 | 8.0 | 14.5 | 0.00 | 0.00 | 0.00 | 63 | 1026.0 |
| 20260508234800 | 16 | 288 | 8.0 | 14.5 | 0.00 | 0.00 | 0.00 | 63 | 1026.0 |
| 20260508234657 | 16 | 265 | 6.4 | 14.5 | 0.00 | 0.00 | 0.00 | 63 | 1026.0 |
| 20260508234554 | 16 | 261 | 4.8 | 12.9 | 0.00 | 0.00 | 0.00 | 63 | 1026.1 |
| 20260508234450 | 16 | 288 | 3.2 | 12.9 | 0.00 | 0.00 | 0.00 | 63 | 1026.0 |
| 20260508234348 | 16 | 284 | 4.8 | 12.9 | 0.00 | 0.00 | 0.00 | 64 | 1026.1 |
| 20260508234247 | 16 | 242 | 4.8 | 12.9 | 0.00 | 0.00 | 0.00 | 64 | 1026.0 |
| 20260508234145 | 16 | 250 | 3.2 | 12.9 | 0.00 | 0.00 | 0.00 | 64 | 1026.1 |
| 20260508234044 | 16 | 230 | 4.8 | 12.9 | 0.00 | 0.00 | 0.00 | 64 | 1026.1 |
| 20260508233938 | 16 | 207 | 6.4 | 12.9 | 0.00 | 0.00 | 0.00 | 64 | 1026.0 |
| 20260508233838 | 16 | 259 | 6.4 | 12.9 | 0.00 | 0.00 | 0.00 | 64 | 1026.0 |
| 20260508233737 | 16 | 279 | 8.0 | 11.3 | 0.00 | 0.00 | 0.00 | 64 | 1025.9 |
| 20260508233643 | 16 | 242 | 6.4 | 11.3 | 0.00 | 0.00 | 0.00 | 64 | 1026.0 |
| 20260508233539 | 16 | 261 | 4.8 | 9.7 | 0.00 | 0.00 | 0.00 | 64 | 1026.1 |
| 20260508233437 | 16 | 257 | 4.8 | 9.7 | 0.00 | 0.00 | 0.00 | 64 | 1026.1 |
| 20260508233339 | 16 | 254 | 3.2 | 9.7 | 0.00 | 0.00 | 0.00 | 65 | 1026.1 |
| 20260508233237 | 16 | 242 | 3.2 | 9.7 | 0.00 | 0.00 | 0.00 | 64 | 1026.0 |
| 20260508233040 | 16 | 232 | 1.6 | 9.7 | 0.00 | 0.00 | 0.00 | 65 | 1026.1 |
| 20260508232937 | 16 | 274 | 1.6 | 9.7 | 0.00 | 0.00 | 0.00 | 66 | 1026.0 |
| 20260508232840 | 16 | 225 | 0.0 | 9.7 | 0.00 | 0.00 | 0.00 | 66 | 1026.1 |
| 20260508232740 | 16 | 240 | 1.6 | 9.7 | 0.00 | 0.00 | 0.00 | 66 | 1026.1 |
| 20260508232636 | 16 | 225 | 4.8 | 9.7 | 0.00 | 0.00 | 0.00 | 65 | 1026.1 |
| 20260508232533 | 16 | 225 | 6.4 | 9.7 | 0.00 | 0.00 | 0.00 | 66 | 1026.1 |
| 20260508232431 | 16 | 243 | 4.8 | 9.7 | 0.00 | 0.00 | 0.00 | 66 | 1026.1 |
| 20260508232343 | 16 | 262 | 3.2 | 11.3 | 0.00 | 0.00 | 0.00 | 66 | 1026.1 |
| 20260508232321 | 16 | 269 | 3.2 | 12.9 | 0.00 | 0.00 | 0.00 | 66 | 1026.1 |
| 20260508232301 | 16 | 235 | 4.8 | 12.9 | 0.00 | 0.00 | 0.00 | 66 | 1026.1 |
| 20260508232230 | 16 | 232 | 4.8 | 12.9 | 0.00 | 0.00 | 0.00 | 67 | 1026.1 |
| 20260508231921 | 16 | 259 | 3.2 | 14.5 | 0.00 | 0.00 | 0.00 | 67 | 1026.1 |
| 20260508231820 | 16 | 254 | 3.2 | 14.5 | 0.00 | 0.00 | 0.00 | 67 | 1026.1 |
| 20260508231717 | 15 | 239 | 4.8 | 14.5 | 0.00 | 0.00 | 0.00 | 67 | 1026.1 |
| 20260508231622 | 15 | 258 | 4.8 | 14.5 | 0.00 | 0.00 | 0.00 | 67 | 1026.1 |
| 20260508231534 | 15 | 270 | 4.8 | 14.5 | 0.00 | 0.00 | 0.00 | 67 | 1026.2 |
| 20260508231417 | 15 | 281 | 8.0 | 14.5 | 0.00 | 0.00 | 0.00 | 67 | 1026.1 |
| 20260508231339 | 15 | 280 | 8.0 | 14.5 | 0.00 | 0.00 | 0.00 | 67 | 1026.1 |
| 20260508231318 | 15 | 256 | 8.0 | 14.5 | 0.00 | 0.00 | 0.00 | 67 | 1026.2 |
| 20260508231251 | 15 | 269 | 8.0 | 14.5 | 0.00 | 0.00 | 0.00 | 67 | 1026.1 |
| 20260508231229 | 15 | 272 | 3.2 | 14.5 | 0.00 | 0.00 | 0.00 | 68 | 1026.1 |
| 20260508230917 | 15 | 281 | 4.8 | 12.9 | 0.00 | 0.00 | 0.00 | 68 | 1026.1 |
| 20260508230812 | 15 | 258 | 4.8 | 12.9 | 0.00 | 0.00 | 0.00 | 68 | 1026.1 |
| 20260508230709 | 15 | 248 | 3.2 | 12.9 | 0.00 | 0.00 | 0.00 | 68 | 1026.2 |
| 20260508230610 | 15 | 261 | 4.8 | 12.9 | 0.00 | 0.00 | 0.00 | 68 | 1026.1 |
| 20260508230409 | 15 | 278 | 6.4 | 12.9 | 0.00 | 0.00 | 0.00 | 68 | 1026.1 |
| 20260508230311 | 15 | 254 | 4.8 | 12.9 | 0.00 | 0.00 | 0.00 | 68 | 1026.1 |
| 20260508230232 | 15 | 284 | 4.8 | 12.9 | 0.00 | 0.00 | 0.00 | 68 | 1026.1 |
| 20260508230211 | 15 | 252 | 6.4 | 12.9 | 0.00 | 0.00 | 0.00 | 68 | 1026.1 |
| 20260508230112 | 15 | 260 | 8.0 | 12.9 | 0.00 | 0.00 | 0.00 | 69 | 1026.1 |
| 20260508225836 | 15 | 268 | 6.4 | 12.9 | 0.00 | 0.00 | 0.00 | 69 | 1026.1 |
| 20260508225811 | 15 | 281 | 4.8 | 12.9 | 0.00 | 0.00 | 0.00 | 69 | 1026.1 |
| 20260508225752 | 15 | 240 | 6.4 | 12.9 | 0.00 | 0.00 | 0.00 | 69 | 1026.1 |
| 20260508225723 | 15 | 244 | 8.0 | 12.9 | 0.00 | 0.00 | 0.00 | 69 | 1026.1 |
| 20260508225410 | 15 | 269 | 6.4 | 12.9 | 0.00 | 0.00 | 0.00 | 69 | 1026.1 |
| 20260508225338 | 15 | 267 | 6.4 | 12.9 | 0.00 | 0.00 | 0.00 | 69 | 1026.0 |
| 20260508225317 | 15 | 238 | 6.4 | 12.9 | 0.00 | 0.00 | 0.00 | 69 | 1026.0 |
| 20260508225254 | 15 | 250 | 6.4 | 12.9 | 0.00 | 0.00 | 0.00 | 69 | 1026.0 |
| 20260508225222 | 15 | 251 | 6.4 | 12.9 | 0.00 | 0.00 | 0.00 | 69 | 1026.1 |
| 20260508224910 | 15 | 251 | 4.8 | 12.9 | 0.00 | 0.00 | 0.00 | 69 | 1026.0 |
| 20260508224811 | 15 | 270 | 4.8 | 12.9 | 0.00 | 0.00 | 0.00 | 69 | 1026.1 |
| 20260508224709 | 15 | 275 | 6.4 | 12.9 | 0.00 | 0.00 | 0.00 | 69 | 1026.1 |
| 20260508224614 | 15 | 300 | 6.4 | 12.9 | 0.00 | 0.00 | 0.00 | 70 | 1026.1 |
| 20260508224413 | 15 | 243 | 4.8 | 9.7 | 0.00 | 0.00 | 0.00 | 70 | 1026.0 |
| 20260508224309 | 15 | 183 | 4.8 | 9.7 | 0.00 | 0.00 | 0.00 | 70 | 1026.0 |
| 20260508224211 | 15 | 232 | 3.2 | 9.7 | 0.00 | 0.00 | 0.00 | 70 | 1026.1 |
| 20260508224108 | 15 | 232 | 3.2 | 9.7 | 0.00 | 0.00 | 0.00 | 70 | 1026.1 |
| 20260508223927 | 15 | 229 | 6.4 | 11.3 | 0.00 | 0.00 | 0.00 | 71 | 1026.0 |
| 20260508223907 | 14 | 298 | 4.8 | 11.3 | 0.00 | 0.00 | 0.00 | 71 | 1026.1 |
| 20260508223812 | 14 | 240 | 3.2 | 11.3 | 0.00 | 0.00 | 0.00 | 71 | 1026.0 |
| 20260508223752 | 14 | 257 | 4.8 | 11.3 | 0.00 | 0.00 | 0.00 | 71 | 1026.1 |
| 20260508223721 | 14 | 238 | 4.8 | 11.3 | 0.00 | 0.00 | 0.00 | 71 | 1026.0 |
| 20260508223410 | 14 | 240 | 4.8 | 11.3 | 0.00 | 0.00 | 0.00 | 71 | 1026.0 |
| 20260508223311 | 14 | 243 | 4.8 | 11.3 | 0.00 | 0.00 | 0.00 | 71 | 1025.9 |
| 20260508223213 | 14 | 257 | 6.4 | 11.3 | 0.00 | 0.00 | 0.00 | 71 | 1026.0 |
| 20260508223111 | 14 | 281 | 6.4 | 11.3 | 0.00 | 0.00 | 0.00 | 71 | 1026.0 |